Observation data for Stratford on 11/19/2019      Previous  Date       Current Mesonet Observations  Soil Data  Daily Summary Page  Observations in Plain Language
KST4 190600Z 26007KT 05/M01 A3001 RMK A01 T00491006  RH  068%=      5-min Rain = 0
KST4 190601Z 26007KT 05/M01 A3001 RMK A01 T00491006  RH  068%=      5-min Rain = 0
KST4 190602Z 26007KT 05/M01 A3001 RMK A01 T00491007  RH  067%=      5-min Rain = 0
KST4 190603Z 26007KT 05/M01 A3001 RMK A01 T00491007  RH  067%=      5-min Rain = 0
KST4 190604Z 26006KT 05/M01 A3001 RMK A01 T00491007  RH  067%=      5-min Rain = 0
KST4 190605Z 26007KT 05/M01 A3001 RMK A01 T00491007  RH  067%=      5-min Rain = 0
KST4 190606Z 26006KT 05/M01 A3001 RMK A01 T00491007  RH  067%=      5-min Rain = 0
KST4 190607Z 26006KT 05/M01 A3001 RMK A01 T00491005  RH  068%=      5-min Rain = 0
KST4 190608Z 26006KT 05/M01 A3001 RMK A01 T00491005  RH  068%=      5-min Rain = 0
KST4 190609Z 26005KT 05/M01 A30 RMK A01 T00491007  RH  067%=      5-min Rain = 0
KST4 190610Z 27005KT 05/M01 A30 RMK A01 T00491012  RH  065%=      5-min Rain = 0
KST4 190611Z 27005KT 05/M02 A30 RMK A01 T00491015  RH  063%=      5-min Rain = 0
KST4 190612Z 27005KT 05/M02 A30 RMK A01 T00501018  RH  062%=      5-min Rain = 0
KST4 190613Z 27005KT 05/M02 A30 RMK A01 T00501020  RH  061%=      5-min Rain = 0
KST4 190614Z 27004KT 05/M02 A30 RMK A01 T00491021  RH  060%=      5-min Rain = 0
KST4 190615Z 27004KT 05/M02 A30 RMK A01 T00481022  RH  060%=      5-min Rain = 0
KST4 190616Z 27005KT 05/M02 A3001 RMK A01 T00471023  RH  060%=      5-min Rain = 0
KST4 190617Z 27005KT 05/M02 A3001 RMK A01 T00461023  RH  061%=      5-min Rain = 0
KST4 190618Z 27005KT 05/M02 A3001 RMK A01 T00451024  RH  061%=      5-min Rain = 0
KST4 190619Z 27005KT 05/M02 A30 RMK A01 T00451024  RH  061%=      5-min Rain = 0
KST4 190620Z 27005KT 04/M02 A30 RMK A01 T00441024  RH  061%=      5-min Rain = 0
KST4 190621Z 27005KT 04/M02 A30 RMK A01 T00441024  RH  061%=      5-min Rain = 0
KST4 190622Z 26005KT 04/M02 A30 RMK A01 T00441024  RH  061%=      5-min Rain = 0
KST4 190623Z 26005KT 04/M02 A30 RMK A01 T00441024  RH  061%=      5-min Rain = 0
KST4 190624Z 26005KT 04/M02 A30 RMK A01 T00441024  RH  061%=      5-min Rain = 0
KST4 190625Z 26005KT 04/M02 A30 RMK A01 T00431024  RH  061%=      5-min Rain = 0
KST4 190626Z 26005KT 04/M02 A30 RMK A01 T00441024  RH  061%=      5-min Rain = 0
KST4 190627Z 26005KT 04/M02 A30 RMK A01 T00441024  RH  061%=      5-min Rain = 0
KST4 190628Z 26005KT 05/M02 A30 RMK A01 T00451024  RH  061%=      5-min Rain = 0
KST4 190629Z 26005KT 05/M02 A30 RMK A01 T00451024  RH  061%=      5-min Rain = 0
KST4 190630Z 26005KT 05/M02 A30 RMK A01 T00451024  RH  061%=      5-min Rain = 0
KST4 190631Z 26005KT 05/M03 A30 RMK A01 T00451025  RH  060%=      5-min Rain = 0
KST4 190632Z 27005KT 05/M03 A30 RMK A01 T00451025  RH  060%=      5-min Rain = 0
KST4 190633Z 27005KT 05/M03 A3001 RMK A01 T00461025  RH  060%=      5-min Rain = 0
KST4 190634Z 27005KT 05/M03 A3001 RMK A01 T00451025  RH  060%=      5-min Rain = 0
KST4 190635Z 27004KT 05/M03 A3001 RMK A01 T00451025  RH  060%=      5-min Rain = 0
KST4 190636Z 27005KT 05/M03 A3001 RMK A01 T00451025  RH  060%=      5-min Rain = 0
KST4 190637Z 27005KT 05/M03 A3001 RMK A01 T00451026  RH  060%=      5-min Rain = 0
KST4 190638Z 27005KT 04/M03 A3001 RMK A01 T00441026  RH  060%=      5-min Rain = 0
KST4 190639Z 27005KT 04/M03 A3001 RMK A01 T00431027  RH  060%=      5-min Rain = 0
KST4 190640Z 27005KT 04/M03 A3001 RMK A01 T00421027  RH  061%=      5-min Rain = 0
KST4 190641Z 27005KT 04/M03 A3001 RMK A01 T00411028  RH  061%=      5-min Rain = 0
KST4 190642Z 27005KT 04/M03 A3001 RMK A01 T00401028  RH  061%=      5-min Rain = 0
KST4 190643Z 28005KT 04/M03 A3001 RMK A01 T00391029  RH  061%=      5-min Rain = 0
KST4 190644Z 27005KT 04/M03 A3001 RMK A01 T00391029  RH  061%=      5-min Rain = 0
KST4 190645Z 27006KT 04/M03 A3001 RMK A01 T00381029  RH  062%=      5-min Rain = 0
KST4 190646Z 27006KT 04/M03 A3001 RMK A01 T00381029  RH  062%=      5-min Rain = 0
KST4 190647Z 28006KT 04/M03 A3001 RMK A01 T00371030  RH  062%=      5-min Rain = 0
KST4 190648Z 28006KT 04/M03 A3001 RMK A01 T00371030  RH  062%=      5-min Rain = 0
KST4 190649Z 28006KT 04/M03 A3001 RMK A01 T00361030  RH  062%=      5-min Rain = 0
KST4 190650Z 28006KT 04/M03 A3001 RMK A01 T00361030  RH  062%=      5-min Rain = 0
KST4 190651Z 28006KT 04/M03 A3001 RMK A01 T00351030  RH  062%=      5-min Rain = 0
KST4 190652Z 28006KT 04/M03 A3001 RMK A01 T00351030  RH  062%=      5-min Rain = 0
KST4 190653Z 28005KT 03/M03 A3001 RMK A01 T00341031  RH  062%=      5-min Rain = 0
KST4 190654Z 28005KT 03/M03 A3001 RMK A01 T00341031  RH  062%=      5-min Rain = 0
KST4 190655Z 27005KT 04/M03 A3001 RMK A01 T00351031  RH  062%=      5-min Rain = 0
KST4 190656Z 27005KT 04/M03 A3001 RMK A01 T00351031  RH  062%=      5-min Rain = 0
KST4 190657Z 27006KT 04/M03 A3001 RMK A01 T00351031  RH  062%=      5-min Rain = 0
KST4 190658Z 27006KT 03/M03 A3001 RMK A01 T00341031  RH  062%=      5-min Rain = 0
KST4 190659Z 27006KT 03/M03 A3001 RMK A01 T00341031  RH  063%=      5-min Rain = 0
KST4 190700Z 27006KT 03/M03 A3001 RMK A01 T00331030  RH  064%=      5-min Rain = 0
KST4 190701Z 27006KT 03/M03 A3001 RMK A01 T00321029  RH  064%=      5-min Rain = 0
KST4 190702Z 27006KT 03/M03 A3001 RMK A01 T00311028  RH  065%=      5-min Rain = 0
KST4 190703Z 27006KT 03/M03 A3001 RMK A01 T00301028  RH  066%=      5-min Rain = 0
KST4 190704Z 27006KT 03/M03 A3001 RMK A01 T00291028  RH  066%=      5-min Rain = 0
KST4 190705Z 27005KT 03/M03 A3001 RMK A01 T00291028  RH  066%=      5-min Rain = 0
KST4 190706Z 27005KT 03/M03 A3001 RMK A01 T00301027  RH  066%=      5-min Rain = 0
KST4 190707Z 27005KT 03/M03 A3001 RMK A01 T00321027  RH  065%=      5-min Rain = 0
KST4 190708Z 28005KT 03/M03 A3001 RMK A01 T00341028  RH  064%=      5-min Rain = 0
KST4 190709Z 28005KT 04/M03 A3001 RMK A01 T00351028  RH  063%=      5-min Rain = 0
KST4 190710Z 28005KT 04/M03 A3001 RMK A01 T00351029  RH  063%=      5-min Rain = 0
KST4 190711Z 28005KT 04/M03 A3001 RMK A01 T00361029  RH  063%=      5-min Rain = 0
KST4 190712Z 28005KT 04/M03 A3001 RMK A01 T00361030  RH  062%=      5-min Rain = 0
KST4 190713Z 28005KT 03/M03 A3001 RMK A01 T00341031  RH  062%=      5-min Rain = 0
KST4 190714Z 28005KT 03/M03 A3001 RMK A01 T00331031  RH  063%=      5-min Rain = 0
KST4 190715Z 28005KT 03/M03 A3001 RMK A01 T00321031  RH  063%=      5-min Rain = 0
KST4 190716Z 28005KT 03/M03 A3001 RMK A01 T00321031  RH  063%=      5-min Rain = 0
KST4 190717Z 28005KT 03/M03 A3001 RMK A01 T00321031  RH  063%=      5-min Rain = 0
KST4 190718Z 28004KT 03/M03 A3001 RMK A01 T00321031  RH  063%=      5-min Rain = 0
KST4 190719Z 28004KT 03/M03 A3001 RMK A01 T00331030  RH  063%=      5-min Rain = 0
KST4 190720Z 28004KT 03/M03 A3001 RMK A01 T00331029  RH  064%=      5-min Rain = 0
KST4 190721Z 28004KT 03/M03 A3001 RMK A01 T00341029  RH  063%=      5-min Rain = 0
KST4 190722Z 28004KT 04/M03 A3001 RMK A01 T00351028  RH  063%=      5-min Rain = 0
KST4 190723Z 28004KT 04/M03 A3001 RMK A01 T00361028  RH  063%=      5-min Rain = 0
KST4 190724Z 28004KT 04/M03 A3001 RMK A01 T00371028  RH  063%=      5-min Rain = 0
KST4 190725Z 27003KT 04/M03 A3001 RMK A01 T00371028  RH  062%=      5-min Rain = 0
KST4 190726Z 27003KT 04/M03 A3001 RMK A01 T00371028  RH  062%=      5-min Rain = 0
KST4 190727Z 27003KT 04/M03 A3001 RMK A01 T00371028  RH  062%=      5-min Rain = 0
KST4 190728Z 27003KT 04/M03 A3001 RMK A01 T00371028  RH  062%=      5-min Rain = 0
KST4 190729Z 27003KT 04/M03 A3001 RMK A01 T00371029  RH  062%=      5-min Rain = 0
KST4 190730Z 27003KT 04/M03 A30 RMK A01 T00371029  RH  062%=      5-min Rain = 0
KST4 190731Z 27003KT 04/M03 A30 RMK A01 T00371029  RH  062%=      5-min Rain = 0
KST4 190732Z 28003KT 04/M03 A30 RMK A01 T00371029  RH  062%=      5-min Rain = 0
KST4 190733Z 28004KT 04/M03 A30 RMK A01 T00361030  RH  062%=      5-min Rain = 0
KST4 190734Z 29003KT 04/M03 A30 RMK A01 T00351030  RH  062%=      5-min Rain = 0
KST4 190735Z 29003KT 03/M03 A30 RMK A01 T00341031  RH  062%=      5-min Rain = 0
KST4 190736Z 29003KT 03/M03 A30 RMK A01 T00331031  RH  063%=      5-min Rain = 0
KST4 190737Z 29003KT 03/M03 A30 RMK A01 T00331031  RH  063%=      5-min Rain = 0
KST4 190738Z 29003KT 03/M03 A30 RMK A01 T00331031  RH  063%=      5-min Rain = 0
KST4 190739Z 29003KT 03/M03 A30 RMK A01 T00321031  RH  063%=      5-min Rain = 0
KST4 190740Z 29004KT 03/M03 A30 RMK A01 T00321031  RH  063%=      5-min Rain = 0
KST4 190741Z 29004KT 03/M03 A30 RMK A01 T00311032  RH  063%=      5-min Rain = 0
KST4 190742Z 29004KT 03/M03 A30 RMK A01 T00311032  RH  064%=      5-min Rain = 0
KST4 190743Z 30004KT 03/M03 A30 RMK A01 T00291032  RH  064%=      5-min Rain = 0
KST4 190744Z 30003KT 03/M03 A30 RMK A01 T00281033  RH  064%=      5-min Rain = 0
KST4 190745Z 30003KT 03/M03 A30 RMK A01 T00281033  RH  065%=      5-min Rain = 0
KST4 190746Z 29003KT 03/M03 A30 RMK A01 T00271032  RH  065%=      5-min Rain = 0
KST4 190747Z 29003KT 03/M03 A30 RMK A01 T00281032  RH  065%=      5-min Rain = 0
KST4 190748Z 29003KT 03/M03 A30 RMK A01 T00291031  RH  065%=      5-min Rain = 0
KST4 190749Z 29003KT 03/M03 A30 RMK A01 T00301031  RH  064%=      5-min Rain = 0
KST4 190750Z 29002KT 03/M03 A30 RMK A01 T00301031  RH  064%=      5-min Rain = 0
KST4 190751Z 29003KT 03/M03 A30 RMK A01 T00311030  RH  064%=      5-min Rain = 0
KST4 190752Z 29003KT 03/M03 A30 RMK A01 T00311031  RH  064%=      5-min Rain = 0
KST4 190753Z 29003KT 03/M03 A30 RMK A01 T00311031  RH  064%=      5-min Rain = 0
KST4 190754Z 29003KT 03/M03 A30 RMK A01 T00311031  RH  064%=      5-min Rain = 0
KST4 190755Z 28003KT 03/M03 A30 RMK A01 T00301031  RH  064%=      5-min Rain = 0
KST4 190756Z 28003KT 03/M03 A30 RMK A01 T00301031  RH  064%=      5-min Rain = 0
KST4 190757Z 28003KT 03/M03 A30 RMK A01 T00291032  RH  064%=      5-min Rain = 0
KST4 190758Z 28003KT 03/M03 A30 RMK A01 T00281032  RH  065%=      5-min Rain = 0
KST4 190759Z 28002KT 03/M03 A30 RMK A01 T00271032  RH  065%=      5-min Rain = 0
KST4 190800Z 27002KT 03/M03 A30 RMK A01 T00271031  RH  065%=      5-min Rain = 0
KST4 190801Z 27002KT 03/M03 A30 RMK A01 T00271032  RH  065%=      5-min Rain = 0
KST4 190802Z 26003KT 03/M03 A30 RMK A01 T00271031  RH  065%=      5-min Rain = 0
KST4 190803Z 26003KT 03/M03 A30 RMK A01 T00271030  RH  066%=      5-min Rain = 0
KST4 190804Z 25003KT 03/M03 A30 RMK A01 T00261031  RH  066%=      5-min Rain = 0
KST4 190805Z 25003KT 03/M03 A30 RMK A01 T00251031  RH  067%=      5-min Rain = 0
KST4 190806Z 24003KT 02/M03 A30 RMK A01 T00231032  RH  067%=      5-min Rain = 0
KST4 190807Z 24003KT 02/M03 A30 RMK A01 T00221032  RH  067%=      5-min Rain = 0
KST4 190808Z 24003KT 02/M03 A30 RMK A01 T00211032  RH  068%=      5-min Rain = 0
KST4 190809Z 23003KT 02/M03 A30 RMK A01 T00211032  RH  068%=      5-min Rain = 0
KST4 190810Z 23003KT 02/M03 A30 RMK A01 T00221030  RH  068%=      5-min Rain = 0
KST4 190811Z 23004KT 02/M03 A30 RMK A01 T00241029  RH  068%=      5-min Rain = 0
KST4 190812Z 23004KT 02/M03 A30 RMK A01 T00241027  RH  069%=      5-min Rain = 0
KST4 190813Z 24004KT 03/M03 A30 RMK A01 T00261026  RH  069%=      5-min Rain = 0
KST4 190814Z 24005KT 03/M03 A30 RMK A01 T00271025  RH  069%=      5-min Rain = 0
KST4 190815Z 25005KT 03/M02 A30 RMK A01 T00281023  RH  069%=      5-min Rain = 0
KST4 190816Z 25005KT 03/M02 A30 RMK A01 T00281021  RH  070%=      5-min Rain = 0
KST4 190817Z 25006KT 03/M02 A30 RMK A01 T00281015  RH  073%=      5-min Rain = 0
KST4 190818Z 25006KT 03/M01 A30 RMK A01 T00271012  RH  076%=      5-min Rain = 0
KST4 190819Z 25006KT 03/M01 A30 RMK A01 T00261014  RH  075%=      5-min Rain = 0
KST4 190820Z 26006KT 02/M02 A30 RMK A01 T00241018  RH  074%=      5-min Rain = 0
KST4 190821Z 25007KT 02/M02 A30 RMK A01 T00231021  RH  073%=      5-min Rain = 0
KST4 190822Z 25006KT 02/M02 A30 RMK A01 T00211022  RH  073%=      5-min Rain = 0
KST4 190823Z 25006KT 02/M02 A30 RMK A01 T00201022  RH  074%=      5-min Rain = 0
KST4 190824Z 25007KT 02/M02 A30 RMK A01 T00191022  RH  075%=      5-min Rain = 0
KST4 190825Z 25006KT 02/M02 A30 RMK A01 T00181022  RH  075%=      5-min Rain = 0
KST4 190826Z 25006KT 02/M02 A30 RMK A01 T00171023  RH  074%=      5-min Rain = 0
KST4 190827Z 25007KT 02/M02 A30 RMK A01 T00171023  RH  075%=      5-min Rain = 0
KST4 190828Z 25007KT 02/M02 A30 RMK A01 T00171022  RH  075%=      5-min Rain = 0
KST4 190829Z 25008KT 02/M02 A30 RMK A01 T00181022  RH  075%=      5-min Rain = 0
KST4 190830Z 25008KT 02/M02 A30 RMK A01 T00181022  RH  075%=      5-min Rain = 0
KST4 190831Z 25008KT 02/M02 A30 RMK A01 T00181023  RH  074%=      5-min Rain = 0
KST4 190832Z 25008KT 02/M02 A30 RMK A01 T00171024  RH  074%=      5-min Rain = 0
KST4 190833Z 25008KT 02/M03 A30 RMK A01 T00161025  RH  074%=      5-min Rain = 0
KST4 190834Z 25008KT 02/M03 A30 RMK A01 T00161026  RH  074%=      5-min Rain = 0
KST4 190835Z 25008KT 02/M03 A30 RMK A01 T00151025  RH  074%=      5-min Rain = 0
KST4 190836Z 25009KT 02/M02 A30 RMK A01 T00151024  RH  075%=      5-min Rain = 0
KST4 190837Z 25008KT 02/M02 A30 RMK A01 T00161022  RH  076%=      5-min Rain = 0
KST4 190838Z 25008KT 02/M02 A30 RMK A01 T00161020  RH  077%=      5-min Rain = 0
KST4 190839Z 25007KT 02/M02 A30 RMK A01 T00161019  RH  077%=      5-min Rain = 0
KST4 190840Z 25008KT 02/M02 A30 RMK A01 T00161020  RH  077%=      5-min Rain = 0
KST4 190841Z 25008KT 02/M02 A2999 RMK A01 T00171021  RH  076%=      5-min Rain = 0
KST4 190842Z 25007KT 02/M02 A2999 RMK A01 T00171022  RH  075%=      5-min Rain = 0
KST4 190843Z 24007KT 02/M02 A2999 RMK A01 T00171023  RH  074%=      5-min Rain = 0
KST4 190844Z 25007KT 02/M02 A2999 RMK A01 T00171024  RH  074%=      5-min Rain = 0
KST4 190845Z 25008KT 02/M02 A2999 RMK A01 T00171024  RH  074%=      5-min Rain = 0
KST4 190846Z 25008KT 02/M02 A2999 RMK A01 T00171024  RH  074%=      5-min Rain = 0
KST4 190847Z 25008KT 02/M02 A2999 RMK A01 T00171024  RH  074%=      5-min Rain = 0
KST4 190848Z 24007KT 02/M02 A2999 RMK A01 T00171024  RH  074%=      5-min Rain = 0
KST4 190849Z 25008KT 02/M03 A2999 RMK A01 T00171025  RH  074%=      5-min Rain = 0
KST4 190850Z 25008KT 02/M03 A2999 RMK A01 T00161025  RH  074%=      5-min Rain = 0
KST4 190851Z 25008KT 02/M03 A2999 RMK A01 T00151025  RH  075%=      5-min Rain = 0
KST4 190852Z 25008KT 02/M02 A2999 RMK A01 T00151024  RH  075%=      5-min Rain = 0
KST4 190853Z 25008KT 02/M02 A2999 RMK A01 T00151024  RH  075%=      5-min Rain = 0
KST4 190854Z 24008KT 02/M02 A2999 RMK A01 T00161024  RH  075%=      5-min Rain = 0
KST4 190855Z 24008KT 02/M02 A2999 RMK A01 T00171023  RH  075%=      5-min Rain = 0
KST4 190856Z 24008KT 02/M02 A2999 RMK A01 T00181022  RH  074%=      5-min Rain = 0
KST4 190857Z 24007KT 02/M02 A2999 RMK A01 T00191022  RH  074%=      5-min Rain = 0
KST4 190858Z 24007KT 02/M02 A2999 RMK A01 T00201022  RH  074%=      5-min Rain = 0
KST4 190859Z 24007KT 02/M02 A2999 RMK A01 T00221021  RH  074%=      5-min Rain = 0
KST4 190900Z 23007KT 02/M02 A2999 RMK A01 T00221021  RH  073%=      5-min Rain = 0
KST4 190901Z 23007KT 02/M02 A2999 RMK A01 T00231020  RH  073%=      5-min Rain = 0
KST4 190902Z 23007KT 02/M02 A2999 RMK A01 T00231018  RH  074%=      5-min Rain = 0
KST4 190903Z 23007KT 02/M02 A2998 RMK A01 T00231018  RH  075%=      5-min Rain = 0
KST4 190904Z 23007KT 02/M02 A2998 RMK A01 T00231018  RH  074%=      5-min Rain = 0
KST4 190905Z 22007KT 02/M02 A2998 RMK A01 T00231018  RH  074%=      5-min Rain = 0
KST4 190906Z 22007KT 02/M02 A2998 RMK A01 T00231018  RH  074%=      5-min Rain = 0
KST4 190907Z 22006KT 02/M02 A2998 RMK A01 T00231017  RH  075%=      5-min Rain = 0
KST4 190908Z 22006KT 02/M02 A2998 RMK A01 T00241017  RH  075%=      5-min Rain = 0
KST4 190909Z 22006KT 02/M02 A2998 RMK A01 T00241017  RH  075%=      5-min Rain = 0
KST4 190910Z 22006KT 02/M02 A2998 RMK A01 T00241017  RH  074%=      5-min Rain = 0
KST4 190911Z 23006KT 02/M02 A2998 RMK A01 T00231020  RH  073%=      5-min Rain = 0
KST4 190912Z 23006KT 02/M02 A2998 RMK A01 T00231023  RH  071%=      5-min Rain = 0
KST4 190913Z 23006KT 02/M03 A2998 RMK A01 T00221026  RH  071%=      5-min Rain = 0
KST4 190914Z 23006KT 02/M03 A2998 RMK A01 T00201027  RH  071%=      5-min Rain = 0
KST4 190915Z 23005KT 02/M03 A2998 RMK A01 T00181027  RH  072%=      5-min Rain = 0
KST4 190916Z 24005KT 02/M03 A2998 RMK A01 T00171027  RH  073%=      5-min Rain = 0
KST4 190917Z 24005KT 02/M03 A2998 RMK A01 T00161027  RH  073%=      5-min Rain = 0
KST4 190918Z 24005KT 02/M03 A2998 RMK A01 T00151027  RH  074%=      5-min Rain = 0
KST4 190919Z 24005KT 01/M03 A2998 RMK A01 T00141028  RH  074%=      5-min Rain = 0
KST4 190920Z 24005KT 01/M03 A2998 RMK A01 T00141028  RH  073%=      5-min Rain = 0
KST4 190921Z 24005KT 02/M03 A2998 RMK A01 T00151029  RH  073%=      5-min Rain = 0
KST4 190922Z 25005KT 02/M03 A2998 RMK A01 T00161030  RH  072%=      5-min Rain = 0
KST4 190923Z 25005KT 02/M03 A2998 RMK A01 T00171030  RH  071%=      5-min Rain = 0
KST4 190924Z 25005KT 02/M03 A2998 RMK A01 T00171030  RH  071%=      5-min Rain = 0
KST4 190925Z 25005KT 02/M03 A2998 RMK A01 T00171033  RH  070%=      5-min Rain = 0
KST4 190926Z 25005KT 02/M04 A2998 RMK A01 T00151035  RH  069%=      5-min Rain = 0
KST4 190927Z 25005KT 01/M04 A2998 RMK A01 T00141035  RH  070%=      5-min Rain = 0
KST4 190928Z 25005KT 01/M04 A2998 RMK A01 T00131035  RH  070%=      5-min Rain = 0
KST4 190929Z 25005KT 01/M04 A2998 RMK A01 T00131035  RH  070%=      5-min Rain = 0
KST4 190930Z 25005KT 01/M04 A2998 RMK A01 T00131035  RH  070%=      5-min Rain = 0
KST4 190931Z 25005KT 01/M04 A2998 RMK A01 T00131035  RH  070%=      5-min Rain = 0
KST4 190932Z 25005KT 01/M04 A2998 RMK A01 T00131036  RH  070%=      5-min Rain = 0
KST4 190933Z 25005KT 01/M04 A2998 RMK A01 T00131036  RH  070%=      5-min Rain = 0
KST4 190934Z 25005KT 01/M04 A2998 RMK A01 T00131035  RH  071%=      5-min Rain = 0
KST4 190935Z 25005KT 01/M04 A2998 RMK A01 T00121035  RH  071%=      5-min Rain = 0
KST4 190936Z 25005KT 01/M04 A2998 RMK A01 T00131035  RH  071%=      5-min Rain = 0
KST4 190937Z 25004KT 01/M04 A2998 RMK A01 T00121035  RH  071%=      5-min Rain = 0
KST4 190938Z 24004KT 01/M04 A2997 RMK A01 T00121035  RH  071%=      5-min Rain = 0
KST4 190939Z 24004KT 01/M04 A2997 RMK A01 T00121035  RH  071%=      5-min Rain = 0
KST4 190940Z 24004KT 01/M04 A2997 RMK A01 T00121035  RH  071%=      5-min Rain = 0
KST4 190941Z 24005KT 01/M04 A2997 RMK A01 T00121035  RH  071%=      5-min Rain = 0
KST4 190942Z 24005KT 01/M04 A2997 RMK A01 T00121035  RH  071%=      5-min Rain = 0
KST4 190943Z 24005KT 01/M04 A2997 RMK A01 T00121035  RH  071%=      5-min Rain = 0
KST4 190944Z 24005KT 01/M04 A2997 RMK A01 T00121035  RH  071%=      5-min Rain = 0
KST4 190945Z 24005KT 01/M04 A2997 RMK A01 T00121035  RH  071%=      5-min Rain = 0
KST4 190946Z 24005KT 01/M04 A2997 RMK A01 T00121035  RH  071%=      5-min Rain = 0
KST4 190947Z 24005KT 01/M03 A2997 RMK A01 T00121034  RH  071%=      5-min Rain = 0
KST4 190948Z 24005KT 01/M03 A2997 RMK A01 T00121034  RH  071%=      5-min Rain = 0
KST4 190949Z 24005KT 01/M03 A2997 RMK A01 T00121034  RH  071%=      5-min Rain = 0
KST4 190950Z 24005KT 01/M03 A2997 RMK A01 T00121034  RH  071%=      5-min Rain = 0
KST4 190951Z 24005KT 01/M03 A2997 RMK A01 T00121034  RH  071%=      5-min Rain = 0
KST4 190952Z 24005KT 01/M03 A2997 RMK A01 T00121034  RH  071%=      5-min Rain = 0
KST4 190953Z 24005KT 01/M03 A2997 RMK A01 T00121034  RH  072%=      5-min Rain = 0
KST4 190954Z 24005KT 01/M03 A2997 RMK A01 T00131033  RH  072%=      5-min Rain = 0
KST4 190955Z 24005KT 01/M03 A2997 RMK A01 T00131034  RH  071%=      5-min Rain = 0
KST4 190956Z 24005KT 01/M03 A2997 RMK A01 T00131034  RH  071%=      5-min Rain = 0
KST4 190957Z 24005KT 01/M03 A2997 RMK A01 T00131034  RH  071%=      5-min Rain = 0
KST4 190958Z 23005KT 01/M03 A2997 RMK A01 T00131034  RH  071%=      5-min Rain = 0
KST4 190959Z 23005KT 01/M03 A2997 RMK A01 T00141033  RH  071%=      5-min Rain = 0
KST4 191000Z 23005KT 01/M03 A2997 RMK A01 T00141034  RH  071%=      5-min Rain = 0
KST4 191001Z 23005KT 01/M03 A2997 RMK A01 T00141034  RH  071%=      5-min Rain = 0
KST4 191002Z 23005KT 01/M03 A2997 RMK A01 T00141034  RH  071%=      5-min Rain = 0
KST4 191003Z 23005KT 01/M03 A2996 RMK A01 T00131034  RH  071%=      5-min Rain = 0
KST4 191004Z 23005KT 01/M03 A2996 RMK A01 T00131034  RH  071%=      5-min Rain = 0
KST4 191005Z 23006KT 01/M03 A2996 RMK A01 T00131034  RH  071%=      5-min Rain = 0
KST4 191006Z 23006KT 01/M04 A2996 RMK A01 T00131035  RH  071%=      5-min Rain = 0
KST4 191007Z 23006KT 01/M03 A2996 RMK A01 T00121034  RH  071%=      5-min Rain = 0
KST4 191008Z 23006KT 01/M03 A2996 RMK A01 T00111033  RH  072%=      5-min Rain = 0
KST4 191009Z 23007KT 01/M03 A2996 RMK A01 T00111031  RH  073%=      5-min Rain = 0
KST4 191010Z 23007KT 01/M03 A2996 RMK A01 T00111031  RH  074%=      5-min Rain = 0
KST4 191011Z 23007KT 01/M03 A2996 RMK A01 T00111030  RH  074%=      5-min Rain = 0
KST4 191012Z 23007KT 01/M03 A2996 RMK A01 T00111029  RH  075%=      5-min Rain = 0
KST4 191013Z 23007KT 01/M03 A2996 RMK A01 T00101028  RH  076%=      5-min Rain = 0
KST4 191014Z 23007KT 01/M03 A2996 RMK A01 T00091027  RH  077%=      5-min Rain = 0
KST4 191015Z 23007KT 01/M03 A2996 RMK A01 T00091026  RH  078%=      5-min Rain = 0
KST4 191016Z 23007KT 01/M02 A2996 RMK A01 T00101024  RH  078%=      5-min Rain = 0
KST4 191017Z 23007KT 01/M02 A2996 RMK A01 T00121023  RH  077%=      5-min Rain = 0
KST4 191018Z 23007KT 01/M02 A2996 RMK A01 T00141022  RH  077%=      5-min Rain = 0
KST4 191019Z 22007KT 02/M02 A2996 RMK A01 T00151022  RH  076%=      5-min Rain = 0
KST4 191020Z 22007KT 02/M02 A2996 RMK A01 T00161022  RH  076%=      5-min Rain = 0
KST4 191021Z 22007KT 02/M02 A2996 RMK A01 T00171022  RH  075%=      5-min Rain = 0
KST4 191022Z 22007KT 02/M02 A2996 RMK A01 T00181022  RH  075%=      5-min Rain = 0
KST4 191023Z 22007KT 02/M02 A2996 RMK A01 T00181022  RH  074%=      5-min Rain = 0
KST4 191024Z 22007KT 02/M02 A2996 RMK A01 T00191022  RH  074%=      5-min Rain = 0
KST4 191025Z 22007KT 02/M02 A2996 RMK A01 T00191023  RH  074%=      5-min Rain = 0
KST4 191026Z 22006KT 02/M02 A2996 RMK A01 T00191023  RH  074%=      5-min Rain = 0
KST4 191027Z 22006KT 02/M02 A2996 RMK A01 T00181023  RH  074%=      5-min Rain = 0
KST4 191028Z 22006KT 02/M02 A2996 RMK A01 T00181024  RH  074%=      5-min Rain = 0
KST4 191029Z 22006KT 02/M02 A2996 RMK A01 T00171024  RH  074%=      5-min Rain = 0
KST4 191030Z 22006KT 02/M02 A2996 RMK A01 T00171024  RH  074%=      5-min Rain = 0
KST4 191031Z 22005KT 02/M02 A2996 RMK A01 T00171024  RH  074%=      5-min Rain = 0
KST4 191032Z 22005KT 02/M03 A2996 RMK A01 T00161025  RH  074%=      5-min Rain = 0
KST4 191033Z 23005KT 02/M03 A2996 RMK A01 T00161025  RH  074%=      5-min Rain = 0
KST4 191034Z 23005KT 02/M03 A2996 RMK A01 T00161026  RH  074%=      5-min Rain = 0
KST4 191035Z 23005KT 02/M03 A2996 RMK A01 T00151027  RH  074%=      5-min Rain = 0
KST4 191036Z 23005KT 01/M03 A2996 RMK A01 T00141028  RH  074%=      5-min Rain = 0
KST4 191037Z 23005KT 01/M03 A2996 RMK A01 T00141027  RH  074%=      5-min Rain = 0
KST4 191038Z 23005KT 01/M03 A2996 RMK A01 T00141027  RH  074%=      5-min Rain = 0
KST4 191039Z 22005KT 01/M03 A2996 RMK A01 T00141026  RH  075%=      5-min Rain = 0
KST4 191040Z 21005KT 02/M03 A2996 RMK A01 T00151025  RH  075%=      5-min Rain = 0
KST4 191041Z 21006KT 02/M02 A2996 RMK A01 T00151024  RH  075%=      5-min Rain = 0
KST4 191042Z 21006KT 02/M02 A2995 RMK A01 T00161023  RH  075%=      5-min Rain = 0
KST4 191043Z 20006KT 02/M02 A2995 RMK A01 T00181022  RH  075%=      5-min Rain = 0
KST4 191044Z 20005KT 02/M02 A2995 RMK A01 T00211021  RH  074%=      5-min Rain = 0
KST4 191045Z 20005KT 03/M02 A2995 RMK A01 T00261019  RH  072%=      5-min Rain = 0
KST4 191046Z 20005KT 03/M02 A2995 RMK A01 T00311018  RH  070%=      5-min Rain = 0
KST4 191047Z 21005KT 03/M02 A2995 RMK A01 T00341017  RH  069%=      5-min Rain = 0
KST4 191048Z 20005KT 04/M02 A2995 RMK A01 T00361018  RH  068%=      5-min Rain = 0
KST4 191049Z 20006KT 04/M02 A2995 RMK A01 T00361020  RH  067%=      5-min Rain = 0
KST4 191050Z 20006KT 04/M02 A2995 RMK A01 T00361016  RH  068%=      5-min Rain = 0
KST4 191051Z 20006KT 04/M01 A2995 RMK A01 T00361011  RH  071%=      5-min Rain = 0
KST4 191052Z 20006KT 04/M01 A2995 RMK A01 T00371011  RH  071%=      5-min Rain = 0
KST4 191053Z 20006KT 04/M02 A2995 RMK A01 T00371015  RH  069%=      5-min Rain = 0
KST4 191054Z 20007KT 04/M02 A2995 RMK A01 T00381016  RH  068%=      5-min Rain = 0
KST4 191055Z 20006KT 04/M01 A2995 RMK A01 T00391013  RH  069%=      5-min Rain = 0
KST4 191056Z 21006KT 04/M01 A2995 RMK A01 T00421008  RH  070%=      5-min Rain = 0
KST4 191057Z 21006KT 04/M01 A2995 RMK A01 T00421009  RH  070%=      5-min Rain = 0
KST4 191058Z 21006KT 04/M02 A2995 RMK A01 T00381017  RH  067%=      5-min Rain = 0
KST4 191059Z 21006KT 03/M02 A2995 RMK A01 T00341022  RH  067%=      5-min Rain = 0
KST4 191100Z 21006KT 03/M02 A2995 RMK A01 T00291023  RH  068%=      5-min Rain = 0
KST4 191101Z 21007KT 03/M02 A2995 RMK A01 T00261023  RH  070%=      5-min Rain = 0
KST4 191102Z 21007KT 02/M02 A2995 RMK A01 T00241023  RH  071%=      5-min Rain = 0
KST4 191103Z 22007KT 02/M02 A2995 RMK A01 T00221022  RH  072%=      5-min Rain = 0
KST4 191104Z 22007KT 02/M02 A2995 RMK A01 T00211022  RH  073%=      5-min Rain = 0
KST4 191105Z 22007KT 02/M02 A2995 RMK A01 T00201021  RH  074%=      5-min Rain = 0
KST4 191106Z 22007KT 02/M02 A2995 RMK A01 T00201021  RH  074%=      5-min Rain = 0
KST4 191107Z 22007KT 02/M02 A2995 RMK A01 T00211020  RH  074%=      5-min Rain = 0
KST4 191108Z 23006KT 02/M02 A2995 RMK A01 T00221020  RH  074%=      5-min Rain = 0
KST4 191109Z 23007KT 02/M02 A2995 RMK A01 T00231021  RH  073%=      5-min Rain = 0
KST4 191110Z 22007KT 02/M02 A2995 RMK A01 T00231021  RH  073%=      5-min Rain = 0
KST4 191111Z 22007KT 02/M02 A2995 RMK A01 T00231020  RH  073%=      5-min Rain = 0
KST4 191112Z 22008KT 02/M02 A2995 RMK A01 T00231020  RH  073%=      5-min Rain = 0
KST4 191113Z 21008KT 02/M02 A2995 RMK A01 T00231021  RH  073%=      5-min Rain = 0
KST4 191114Z 22008KT 02/M02 A2995 RMK A01 T00231021  RH  073%=      5-min Rain = 0
KST4 191115Z 21008KT 02/M02 A2995 RMK A01 T00231021  RH  073%=      5-min Rain = 0
KST4 191116Z 21008KT 02/M02 A2995 RMK A01 T00231020  RH  073%=      5-min Rain = 0
KST4 191117Z 21008KT 02/M02 A2995 RMK A01 T00221020  RH  074%=      5-min Rain = 0
KST4 191118Z 21008KT 02/M02 A2995 RMK A01 T00221019  RH  074%=      5-min Rain = 0
KST4 191119Z 21008KT 02/M02 A2995 RMK A01 T00231018  RH  074%=      5-min Rain = 0
KST4 191120Z 21008KT 02/M02 A2995 RMK A01 T00241017  RH  074%=      5-min Rain = 0
KST4 191121Z 21008KT 03/M02 A2995 RMK A01 T00251017  RH  074%=      5-min Rain = 0
KST4 191122Z 21008KT 03/M02 A2995 RMK A01 T00251018  RH  074%=      5-min Rain = 0
KST4 191123Z 21008KT 02/M02 A2995 RMK A01 T00231019  RH  074%=      5-min Rain = 0
KST4 191124Z 21008KT 02/M02 A2995 RMK A01 T00221019  RH  074%=      5-min Rain = 0
KST4 191125Z 21008KT 02/M02 A2995 RMK A01 T00211019  RH  075%=      5-min Rain = 0
KST4 191126Z 21008KT 02/M02 A2995 RMK A01 T00201020  RH  075%=      5-min Rain = 0
KST4 191127Z 21008KT 02/M02 A2995 RMK A01 T00191021  RH  075%=      5-min Rain = 0
KST4 191128Z 21008KT 02/M02 A2994 RMK A01 T00181021  RH  075%=      5-min Rain = 0
KST4 191129Z 21007KT 02/M02 A2994 RMK A01 T00181021  RH  075%=      5-min Rain = 0
KST4 191130Z 21007KT 02/M02 A2994 RMK A01 T00171021  RH  076%=      5-min Rain = 0
KST4 191131Z 21007KT 02/M02 A2994 RMK A01 T00171021  RH  076%=      5-min Rain = 0
KST4 191132Z 22007KT 02/M02 A2994 RMK A01 T00171021  RH  076%=      5-min Rain = 0
KST4 191133Z 21007KT 02/M02 A2994 RMK A01 T00161022  RH  076%=      5-min Rain = 0
KST4 191134Z 21007KT 02/M02 A2994 RMK A01 T00161022  RH  076%=      5-min Rain = 0
KST4 191135Z 21007KT 02/M02 A2994 RMK A01 T00151023  RH  076%=      5-min Rain = 0
KST4 191136Z 21008KT 01/M02 A2994 RMK A01 T00141023  RH  076%=      5-min Rain = 0
KST4 191137Z 21007KT 01/M02 A2994 RMK A01 T00131024  RH  076%=      5-min Rain = 0
KST4 191138Z 21007KT 01/M02 A2994 RMK A01 T00131024  RH  076%=      5-min Rain = 0
KST4 191139Z 21008KT 01/M02 A2994 RMK A01 T00121024  RH  077%=      5-min Rain = 0
KST4 191140Z 21007KT 01/M02 A2994 RMK A01 T00121024  RH  077%=      5-min Rain = 0
KST4 191141Z 21007KT 01/M02 A2994 RMK A01 T00121024  RH  077%=      5-min Rain = 0
KST4 191142Z 21007KT 01/M02 A2994 RMK A01 T00121024  RH  077%=      5-min Rain = 0
KST4 191143Z 21007KT 01/M02 A2994 RMK A01 T00121024  RH  077%=      5-min Rain = 0
KST4 191144Z 21007KT 01/M03 A2994 RMK A01 T00111025  RH  077%=      5-min Rain = 0
KST4 191145Z 21007KT 01/M03 A2994 RMK A01 T00111026  RH  077%=      5-min Rain = 0
KST4 191146Z 20007KT 01/M03 A2994 RMK A01 T00101026  RH  077%=      5-min Rain = 0
KST4 191147Z 21007KT 01/M03 A2994 RMK A01 T00101026  RH  077%=      5-min Rain = 0
KST4 191148Z 20007KT 01/M03 A2994 RMK A01 T00091027  RH  077%=      5-min Rain = 0
KST4 191149Z 19007KT 01/M03 A2994 RMK A01 T00091026  RH  077%=      5-min Rain = 0
KST4 191150Z 19007KT 01/M03 A2994 RMK A01 T00101026  RH  077%=      5-min Rain = 0
KST4 191151Z 19007KT 01/M02 A2994 RMK A01 T00121024  RH  077%=      5-min Rain = 0
KST4 191152Z 19008KT 02/M02 A2993 RMK A01 T00161016  RH  079%=      5-min Rain = 0
KST4 191153Z 19007KT 02/M02 A2993 RMK A01 T00191016  RH  078%=      5-min Rain = 0
KST4 191154Z 19007KT 02/M02 A2993 RMK A01 T00221016  RH  076%=      5-min Rain = 0
KST4 191155Z 19007KT 02/M02 A2993 RMK A01 T00221021  RH  073%=      5-min Rain = 0
KST4 191156Z 19007KT 02/M02 A2993 RMK A01 T00211023  RH  073%=      5-min Rain = 0
KST4 191157Z 19007KT 02/M02 A2993 RMK A01 T00201022  RH  074%=      5-min Rain = 0
KST4 191158Z 19007KT 02/M02 A2993 RMK A01 T00191023  RH  074%=      5-min Rain = 0
KST4 191159Z 19007KT 02/M02 A2993 RMK A01 T00181023  RH  074%=      5-min Rain = 0
KST4 191200Z 19007KT 02/M02 A2993 RMK A01 T00191020  RH  076%=      5-min Rain = 0
KST4 191201Z 20007KT 02/M02 A2993 RMK A01 T00201019  RH  075%=      5-min Rain = 0
KST4 191202Z 20007KT 02/M02 A2993 RMK A01 T00201020  RH  074%=      5-min Rain = 0
KST4 191203Z 19007KT 02/M02 A2993 RMK A01 T00201019  RH  075%=      5-min Rain = 0
KST4 191204Z 20006KT 02/M01 A2993 RMK A01 T00221014  RH  077%=      5-min Rain = 0
KST4 191205Z 20006KT 02/M02 A2993 RMK A01 T00231015  RH  076%=      5-min Rain = 0
KST4 191206Z 20006KT 02/M01 A2993 RMK A01 T00241013  RH  077%=      5-min Rain = 0
KST4 191207Z 20006KT 03/M01 A2993 RMK A01 T00251011  RH  077%=      5-min Rain = 0
KST4 191208Z 20006KT 03/M01 A2993 RMK A01 T00261011  RH  076%=      5-min Rain = 0
KST4 191209Z 20005KT 03/M01 A2993 RMK A01 T00271011  RH  076%=      5-min Rain = 0
KST4 191210Z 20005KT 03/M01 A2993 RMK A01 T00271011  RH  076%=      5-min Rain = 0
KST4 191211Z 20005KT 03/M01 A2993 RMK A01 T00271012  RH  076%=      5-min Rain = 0
KST4 191212Z 21004KT 03/M01 A2993 RMK A01 T00271013  RH  075%=      5-min Rain = 0
KST4 191213Z 21005KT 03/M01 A2993 RMK A01 T00271014  RH  074%=      5-min Rain = 0
KST4 191214Z 21005KT 03/M02 A2993 RMK A01 T00271018  RH  073%=      5-min Rain = 0
KST4 191215Z 22005KT 03/M02 A2993 RMK A01 T00261021  RH  071%=      5-min Rain = 0
KST4 191216Z 21005KT 03/M02 A2993 RMK A01 T00251023  RH  071%=      5-min Rain = 0
KST4 191217Z 21005KT 02/M02 A2993 RMK A01 T00241023  RH  071%=      5-min Rain = 0
KST4 191218Z 21005KT 02/M02 A2993 RMK A01 T00241023  RH  071%=      5-min Rain = 0
KST4 191219Z 21005KT 02/M02 A2993 RMK A01 T00241022  RH  071%=      5-min Rain = 0
KST4 191220Z 21004KT 03/M02 A2993 RMK A01 T00251022  RH  071%=      5-min Rain = 0
KST4 191221Z 21004KT 03/M02 A2993 RMK A01 T00261022  RH  071%=      5-min Rain = 0
KST4 191222Z 21004KT 03/M02 A2993 RMK A01 T00281022  RH  070%=      5-min Rain = 0
KST4 191223Z 21004KT 03/M02 A2993 RMK A01 T00291021  RH  069%=      5-min Rain = 0
KST4 191224Z 21004KT 03/M02 A2993 RMK A01 T00301022  RH  069%=      5-min Rain = 0
KST4 191225Z 22004KT 03/M02 A2993 RMK A01 T00301022  RH  069%=      5-min Rain = 0
KST4 191226Z 22004KT 03/M02 A2993 RMK A01 T00291023  RH  069%=      5-min Rain = 0
KST4 191227Z 22004KT 03/M02 A2993 RMK A01 T00281023  RH  069%=      5-min Rain = 0
KST4 191228Z 21004KT 03/M02 A2993 RMK A01 T00281023  RH  069%=      5-min Rain = 0
KST4 191229Z 21005KT 03/M02 A2993 RMK A01 T00281023  RH  069%=      5-min Rain = 0
KST4 191230Z 21004KT 03/M02 A2993 RMK A01 T00301021  RH  069%=      5-min Rain = 0
KST4 191231Z 21005KT 03/M02 A2993 RMK A01 T00311021  RH  069%=      5-min Rain = 0
KST4 191232Z 21005KT 03/M02 A2993 RMK A01 T00311021  RH  069%=      5-min Rain = 0
KST4 191233Z 21005KT 03/M02 A2993 RMK A01 T00301021  RH  069%=      5-min Rain = 0
KST4 191234Z 21005KT 03/M02 A2993 RMK A01 T00301021  RH  069%=      5-min Rain = 0
KST4 191235Z 21006KT 03/M02 A2993 RMK A01 T00311019  RH  070%=      5-min Rain = 0
KST4 191236Z 22006KT 03/M02 A2993 RMK A01 T00311017  RH  071%=      5-min Rain = 0
KST4 191237Z 22006KT 03/M02 A2993 RMK A01 T00311018  RH  070%=      5-min Rain = 0
KST4 191238Z 23006KT 03/M02 A2993 RMK A01 T00291022  RH  069%=      5-min Rain = 0
KST4 191239Z 23005KT 03/M02 A2993 RMK A01 T00271023  RH  070%=      5-min Rain = 0
KST4 191240Z 22005KT 03/M02 A2992 RMK A01 T00251023  RH  070%=      5-min Rain = 0
KST4 191241Z 22005KT 03/M02 A2992 RMK A01 T00251023  RH  071%=      5-min Rain = 0
KST4 191242Z 22004KT 03/M02 A2992 RMK A01 T00251023  RH  071%=      5-min Rain = 0
KST4 191243Z 22004KT 03/M02 A2993 RMK A01 T00261022  RH  070%=      5-min Rain = 0
KST4 191244Z 22004KT 03/M02 A2993 RMK A01 T00281023  RH  069%=      5-min Rain = 0
KST4 191245Z 22004KT 03/M02 A2993 RMK A01 T00281023  RH  069%=      5-min Rain = 0
KST4 191246Z 22004KT 03/M02 A2993 RMK A01 T00281024  RH  069%=      5-min Rain = 0
KST4 191247Z 22004KT 03/M02 A2993 RMK A01 T00301022  RH  069%=      5-min Rain = 0
KST4 191248Z 22004KT 03/M02 A2993 RMK A01 T00321022  RH  068%=      5-min Rain = 0
KST4 191249Z 22004KT 03/M02 A2993 RMK A01 T00321022  RH  067%=      5-min Rain = 0
KST4 191250Z 22003KT 03/M02 A2993 RMK A01 T00321023  RH  067%=      5-min Rain = 0
KST4 191251Z 23004KT 03/M02 A2993 RMK A01 T00331023  RH  067%=      5-min Rain = 0
KST4 191252Z 24003KT 03/M02 A2993 RMK A01 T00321024  RH  067%=      5-min Rain = 0
KST4 191253Z 24003KT 03/M02 A2993 RMK A01 T00311024  RH  067%=      5-min Rain = 0
KST4 191254Z 24003KT 03/M02 A2993 RMK A01 T00301024  RH  067%=      5-min Rain = 0
KST4 191255Z 25003KT 03/M02 A2993 RMK A01 T00301024  RH  067%=      5-min Rain = 0
KST4 191256Z 25003KT 03/M03 A2993 RMK A01 T00301025  RH  067%=      5-min Rain = 0
KST4 191257Z 25003KT 03/M03 A2993 RMK A01 T00291025  RH  068%=      5-min Rain = 0
KST4 191258Z 25003KT 03/M03 A2993 RMK A01 T00281026  RH  068%=      5-min Rain = 0
KST4 191259Z 25003KT 03/M03 A2993 RMK A01 T00271025  RH  068%=      5-min Rain = 0
KST4 191300Z 25003KT 03/M03 A2993 RMK A01 T00271025  RH  069%=      5-min Rain = 0
KST4 191301Z 25003KT 03/M03 A2993 RMK A01 T00261025  RH  069%=      5-min Rain = 0
KST4 191302Z 24004KT 03/M03 A2993 RMK A01 T00261025  RH  069%=      5-min Rain = 0
KST4 191303Z 24003KT 03/M02 A2993 RMK A01 T00261024  RH  069%=      5-min Rain = 0
KST4 191304Z 24003KT 03/M02 A2993 RMK A01 T00271023  RH  069%=      5-min Rain = 0
KST4 191305Z 24003KT 03/M02 A2993 RMK A01 T00281023  RH  069%=      5-min Rain = 0
KST4 191306Z 24003KT 03/M03 A2993 RMK A01 T00271025  RH  068%=      5-min Rain = 0
KST4 191307Z 24003KT 03/M03 A2993 RMK A01 T00251026  RH  069%=      5-min Rain = 0
KST4 191308Z 24004KT 02/M03 A2993 RMK A01 T00241026  RH  070%=      5-min Rain = 0
KST4 191309Z 24004KT 02/M03 A2993 RMK A01 T00231025  RH  070%=      5-min Rain = 0
KST4 191310Z 23004KT 02/M03 A2993 RMK A01 T00231025  RH  071%=      5-min Rain = 0
KST4 191311Z 23004KT 02/M02 A2993 RMK A01 T00241024  RH  070%=      5-min Rain = 0
KST4 191312Z 23004KT 02/M03 A2993 RMK A01 T00241025  RH  070%=      5-min Rain = 0
KST4 191313Z 23004KT 02/M03 A2993 RMK A01 T00231025  RH  070%=      5-min Rain = 0
KST4 191314Z 23004KT 02/M03 A2993 RMK A01 T00231025  RH  071%=      5-min Rain = 0
KST4 191315Z 23004KT 02/M03 A2993 RMK A01 T00221025  RH  071%=      5-min Rain = 0
KST4 191316Z 23004KT 02/M02 A2993 RMK A01 T00231024  RH  071%=      5-min Rain = 0
KST4 191317Z 23005KT 02/M02 A2993 RMK A01 T00241023  RH  071%=      5-min Rain = 0
KST4 191318Z 23005KT 02/M02 A2993 RMK A01 T00241024  RH  071%=      5-min Rain = 0
KST4 191319Z 22005KT 02/M02 A2993 RMK A01 T00241022  RH  071%=      5-min Rain = 0
KST4 191320Z 23005KT 03/M02 A2993 RMK A01 T00251018  RH  073%=      5-min Rain = 0
KST4 191321Z 22005KT 03/M02 A2992 RMK A01 T00251016  RH  074%=      5-min Rain = 0
KST4 191322Z 22005KT 03/M02 A2992 RMK A01 T00251015  RH  074%=      5-min Rain = 0
KST4 191323Z 22005KT 02/M01 A2992 RMK A01 T00241014  RH  076%=      5-min Rain = 0
KST4 191324Z 22006KT 02/M02 A2992 RMK A01 T00211018  RH  075%=      5-min Rain = 0
KST4 191325Z 21006KT 02/M02 A2992 RMK A01 T00191020  RH  076%=      5-min Rain = 0
KST4 191326Z 22007KT 02/M02 A2992 RMK A01 T00181019  RH  077%=      5-min Rain = 0
KST4 191327Z 21007KT 02/M02 A2992 RMK A01 T00171019  RH  077%=      5-min Rain = 0
KST4 191328Z 21008KT 02/M02 A2992 RMK A01 T00151019  RH  078%=      5-min Rain = 0
KST4 191329Z 21008KT 01/M02 A2992 RMK A01 T00141019  RH  078%=      5-min Rain = 0
KST4 191330Z 21008KT 01/M02 A2992 RMK A01 T00141019  RH  078%=      5-min Rain = 0
KST4 191331Z 20009KT 02/M02 A2992 RMK A01 T00151018  RH  078%=      5-min Rain = 0
KST4 191332Z 20009KT 02/M02 A2992 RMK A01 T00151019  RH  078%=      5-min Rain = 0
KST4 191333Z 20009KT 02/M02 A2992 RMK A01 T00151019  RH  078%=      5-min Rain = 0
KST4 191334Z 20009KT 02/M02 A2992 RMK A01 T00151019  RH  078%=      5-min Rain = 0
KST4 191335Z 20009KT 02/M02 A2991 RMK A01 T00151020  RH  078%=      5-min Rain = 0
KST4 191336Z 20009KT 02/M02 A2991 RMK A01 T00151020  RH  078%=      5-min Rain = 0
KST4 191337Z 20009KT 02/M02 A2991 RMK A01 T00151019  RH  078%=      5-min Rain = 0
KST4 191338Z 20009KT 02/M02 A2991 RMK A01 T00151019  RH  078%=      5-min Rain = 0
KST4 191339Z 20008KT 02/M02 A2991 RMK A01 T00151020  RH  078%=      5-min Rain = 0
KST4 191340Z 20009KT 01/M02 A2991 RMK A01 T00141020  RH  078%=      5-min Rain = 0
KST4 191341Z 20008KT 01/M02 A2991 RMK A01 T00131020  RH  078%=      5-min Rain = 0
KST4 191342Z 20008KT 01/M02 A2991 RMK A01 T00131020  RH  079%=      5-min Rain = 0
KST4 191343Z 20008KT 01/M02 A2991 RMK A01 T00121021  RH  079%=      5-min Rain = 0
KST4 191344Z 20008KT 01/M02 A2991 RMK A01 T00121021  RH  079%=      5-min Rain = 0
KST4 191345Z 20008KT 01/M02 A2991 RMK A01 T00121020  RH  079%=      5-min Rain = 0
KST4 191346Z 20008KT 01/M02 A2991 RMK A01 T00121020  RH  079%=      5-min Rain = 0
KST4 191347Z 20008KT 01/M02 A2991 RMK A01 T00121020  RH  079%=      5-min Rain = 0
KST4 191348Z 20008KT 01/M02 A2991 RMK A01 T00121020  RH  079%=      5-min Rain = 0
KST4 191349Z 20008KT 01/M02 A2991 RMK A01 T00131020  RH  079%=      5-min Rain = 0
KST4 191350Z 20008KT 01/M02 A2991 RMK A01 T00131019  RH  079%=      5-min Rain = 0
KST4 191351Z 20008KT 01/M02 A2991 RMK A01 T00141019  RH  079%=      5-min Rain = 0
KST4 191352Z 20008KT 02/M02 A2991 RMK A01 T00151018  RH  078%=      5-min Rain = 0
KST4 191353Z 20008KT 02/M02 A2991 RMK A01 T00171018  RH  078%=      5-min Rain = 0
KST4 191354Z 20008KT 02/M02 A2991 RMK A01 T00171017  RH  078%=      5-min Rain = 0
KST4 191355Z 20008KT 02/M02 A2991 RMK A01 T00191017  RH  078%=      5-min Rain = 0
KST4 191356Z 20008KT 02/M02 A2991 RMK A01 T00201016  RH  077%=      5-min Rain = 0
KST4 191357Z 20008KT 02/M02 A2991 RMK A01 T00211016  RH  077%=      5-min Rain = 0
KST4 191358Z 20008KT 02/M02 A2991 RMK A01 T00221016  RH  076%=      5-min Rain = 0
KST4 191359Z 20008KT 02/M02 A2991 RMK A01 T00231016  RH  076%=      5-min Rain = 0
KST4 191400Z 20008KT 02/M02 A2991 RMK A01 T00231015  RH  076%=      5-min Rain = 0
KST4 191401Z 20008KT 02/M02 A2991 RMK A01 T00241015  RH  076%=      5-min Rain = 0
KST4 191402Z 20008KT 02/M01 A2991 RMK A01 T00241014  RH  076%=      5-min Rain = 0
KST4 191403Z 20008KT 03/M01 A2991 RMK A01 T00251014  RH  076%=      5-min Rain = 0
KST4 191404Z 20008KT 03/M01 A2991 RMK A01 T00251014  RH  075%=      5-min Rain = 0
KST4 191405Z 20008KT 03/M01 A2991 RMK A01 T00261014  RH  075%=      5-min Rain = 0
KST4 191406Z 20008KT 03/M01 A2991 RMK A01 T00271013  RH  075%=      5-min Rain = 0
KST4 191407Z 19008KT 03/M01 A2991 RMK A01 T00281014  RH  074%=      5-min Rain = 0
KST4 191408Z 19008KT 03/M01 A2991 RMK A01 T00291013  RH  074%=      5-min Rain = 0
KST4 191409Z 19009KT 03/M01 A2991 RMK A01 T00301013  RH  073%=      5-min Rain = 0
KST4 191410Z 20009KT 03/M01 A2991 RMK A01 T00301013  RH  073%=      5-min Rain = 0
KST4 191411Z 20009KT 03/M01 A2991 RMK A01 T00311012  RH  073%=      5-min Rain = 0
KST4 191412Z 20009KT 03/M01 A2991 RMK A01 T00321012  RH  073%=      5-min Rain = 0
KST4 191413Z 20009KT 03/M01 A2991 RMK A01 T00331011  RH  073%=      5-min Rain = 0
KST4 191414Z 20009KT 03/M01 A2991 RMK A01 T00331011  RH  073%=      5-min Rain = 0
KST4 191415Z 20009KT 03/M01 A2991 RMK A01 T00341011  RH  073%=      5-min Rain = 0
KST4 191416Z 20009KT 03/M01 A2991 RMK A01 T00341010  RH  072%=      5-min Rain = 0
KST4 191417Z 20009KT 04/M01 A2991 RMK A01 T00351010  RH  072%=      5-min Rain = 0
KST4 191418Z 20009KT 04/M01 A2991 RMK A01 T00361010  RH  072%=      5-min Rain = 0
KST4 191419Z 20009KT 04/M01 A2991 RMK A01 T00381009  RH  072%=      5-min Rain = 0
KST4 191420Z 20009KT 04/M01 A2991 RMK A01 T00391008  RH  071%=      5-min Rain = 0
KST4 191421Z 19008KT 04/M01 A2991 RMK A01 T00401008  RH  071%=      5-min Rain = 0
KST4 191422Z 19008KT 04/M01 A2991 RMK A01 T00411008  RH  070%=      5-min Rain = 0
KST4 191423Z 19008KT 04/M01 A2991 RMK A01 T00421009  RH  069%=      5-min Rain = 0
KST4 191424Z 19008KT 04/M01 A2991 RMK A01 T00431008  RH  069%=      5-min Rain = 0
KST4 191425Z 19008KT 04/M01 A2991 RMK A01 T00441008  RH  069%=      5-min Rain = 0
KST4 191426Z 19008KT 05/M01 A2991 RMK A01 T00451009  RH  068%=      5-min Rain = 0
KST4 191427Z 18008KT 05/M01 A2991 RMK A01 T00461010  RH  067%=      5-min Rain = 0
KST4 191428Z 18007KT 05/M01 A2991 RMK A01 T00471008  RH  068%=      5-min Rain = 0
KST4 191429Z 19008KT 05/M01 A2991 RMK A01 T00481008  RH  067%=      5-min Rain = 0
KST4 191430Z 19008KT 05/M01 A2991 RMK A01 T00491010  RH  066%=      5-min Rain = 0
KST4 191431Z 19008KT 05/M01 A2991 RMK A01 T00501011  RH  065%=      5-min Rain = 0
KST4 191432Z 19008KT 05/M01 A2991 RMK A01 T00501011  RH  065%=      5-min Rain = 0
KST4 191433Z 19007KT 05/M01 A2991 RMK A01 T00511010  RH  065%=      5-min Rain = 0
KST4 191434Z 19007KT 05/M01 A2991 RMK A01 T00521008  RH  065%=      5-min Rain = 0
KST4 191435Z 19007KT 05/M01 A2991 RMK A01 T00531007  RH  066%=      5-min Rain = 0
KST4 191436Z 19007KT 05/M01 A299 RMK A01 T00531006  RH  065%=      5-min Rain = 0
KST4 191437Z 19007KT 05/M01 A299 RMK A01 T00541007  RH  065%=      5-min Rain = 0
KST4 191438Z 19007KT 06/M01 A299 RMK A01 T00551006  RH  065%=      5-min Rain = 0
KST4 191439Z 19007KT 06/M00 A2991 RMK A01 T00561004  RH  065%=      5-min Rain = 0
KST4 191440Z 19008KT 06/M01 A2991 RMK A01 T00581006  RH  063%=      5-min Rain = 0
KST4 191441Z 19007KT 06/M01 A2991 RMK A01 T00591006  RH  063%=      5-min Rain = 0
KST4 191442Z 19007KT 06/M00 A2991 RMK A01 T00601002  RH  064%=      5-min Rain = 0
KST4 191443Z 19007KT 06/M00 A2991 RMK A01 T00621003  RH  063%=      5-min Rain = 0
KST4 191444Z 19007KT 06/M01 A299 RMK A01 T00631005  RH  062%=      5-min Rain = 0
KST4 191445Z 19007KT 06/M01 A299 RMK A01 T00631006  RH  061%=      5-min Rain = 0
KST4 191446Z 19007KT 06/M00 A2991 RMK A01 T00631004  RH  062%=      5-min Rain = 0
KST4 191447Z 19007KT 06/M01 A2991 RMK A01 T00641005  RH  061%=      5-min Rain = 0
KST4 191448Z 19007KT 07/M00 A2991 RMK A01 T00651003  RH  062%=      5-min Rain = 0
KST4 191449Z 19007KT 07/00 A2991 RMK A01 T006600-0  RH  062%=      5-min Rain = 0
KST4 191450Z 19007KT 07/00 A2991 RMK A01 T00680001  RH  062%=      5-min Rain = 0
KST4 191451Z 19007KT 07/M00 A299 RMK A01 T00701001  RH  061%=      5-min Rain = 0
KST4 191452Z 19008KT 07/00 A299 RMK A01 T00710001  RH  061%=      5-min Rain = 0
KST4 191453Z 18008KT 07/M00 A299 RMK A01 T00731001  RH  059%=      5-min Rain = 0
KST4 191454Z 18008KT 08/M00 A299 RMK A01 T00751003  RH  058%=      5-min Rain = 0
KST4 191455Z 19006KT 08/M00 A299 RMK A01 T00761001  RH  058%=      5-min Rain = 0
KST4 191456Z 18006KT 08/00 A299 RMK A01 T007800-0  RH  058%=      5-min Rain = 0
KST4 191457Z 18005KT 08/00 A299 RMK A01 T00810001  RH  057%=      5-min Rain = 0
KST4 191458Z 18005KT 08/00 A299 RMK A01 T00830003  RH  057%=      5-min Rain = 0
KST4 191459Z 19006KT 08/00 A299 RMK A01 T00840000  RH  055%=      5-min Rain = 0
KST4 191500Z 18005KT 09/00 A299 RMK A01 T00850001  RH  056%=      5-min Rain = 0
KST4 191501Z 19006KT 09/M00 A299 RMK A01 T00861003  RH  054%=      5-min Rain = 0
KST4 191502Z 19005KT 09/M00 A299 RMK A01 T00871002  RH  054%=      5-min Rain = 0
KST4 191503Z 19006KT 09/00 A299 RMK A01 T008900-0  RH  053%=      5-min Rain = 0
KST4 191504Z 18005KT 09/M00 A299 RMK A01 T00901001  RH  053%=      5-min Rain = 0
KST4 191505Z 19007KT 09/M00 A299 RMK A01 T00921001  RH  052%=      5-min Rain = 0
KST4 191506Z 18006KT 10/00 A299 RMK A01 T00950001  RH  052%=      5-min Rain = 0
KST4 191507Z 18008KT 10/M00 A299 RMK A01 T00961002  RH  050%=      5-min Rain = 0
KST4 191508Z 18007KT 10/M00 A299 RMK A01 T00981001  RH  050%=      5-min Rain = 0
KST4 191509Z 19008KT 10/M00 A299 RMK A01 T01001004  RH  049%=      5-min Rain = 0
KST4 191510Z 19007KT 10/M00 A299 RMK A01 T01021001  RH  049%=      5-min Rain = 0
KST4 191511Z 19007KT 10/00 A299 RMK A01 T01030002  RH  049%=      5-min Rain = 0
KST4 191512Z 19009KT 11/00 A299 RMK A01 T01050002  RH  049%=      5-min Rain = 0
KST4 191513Z 19009KT 11/M00 A299 RMK A01 T01061001  RH  047%=      5-min Rain = 0
KST4 191514Z 19008KT 11/M00 A299 RMK A01 T01071001  RH  047%=      5-min Rain = 0
KST4 191515Z 18009KT 11/M00 A299 RMK A01 T01081002  RH  047%=      5-min Rain = 0
KST4 191516Z 18008KT 11/M00 A299 RMK A01 T01091004  RH  046%=      5-min Rain = 0
KST4 191517Z 17010KT 11/M00 A299 RMK A01 T01111002  RH  046%=      5-min Rain = 0
KST4 191518Z 17008KT 11/M01 A299 RMK A01 T01131005  RH  044%=      5-min Rain = 0
KST4 191519Z 18009KT 11/M01 A299 RMK A01 T01141005  RH  044%=      5-min Rain = 0
KST4 191520Z 18009KT 12/M00 A299 RMK A01 T01151004  RH  044%=      5-min Rain = 0
KST4 191521Z 19009KT 12/M00 A299 RMK A01 T01151004  RH  044%=      5-min Rain = 0
KST4 191522Z 18007KT 12/00 A299 RMK A01 T01160003  RH  046%=      5-min Rain = 0
KST4 191523Z 18007KT 12/00 A299 RMK A01 T01180001  RH  045%=      5-min Rain = 0
KST4 191524Z 19008KT 12/00 A299 RMK A01 T01200003  RH  045%=      5-min Rain = 0
KST4 191525Z 19010KT 12/00 A299 RMK A01 T01210003  RH  044%=      5-min Rain = 0
KST4 191526Z 19010KT 12/00 A299 RMK A01 T01220001  RH  043%=      5-min Rain = 0
KST4 191527Z 19009KT 12/00 A299 RMK A01 T01230004  RH  044%=      5-min Rain = 0
KST4 191528Z 19011KT 12/00 A299 RMK A01 T01240003  RH  044%=      5-min Rain = 0
KST4 191529Z 19010KT 13/00 A299 RMK A01 T01250002  RH  043%=      5-min Rain = 0
KST4 191530Z 20012KT 13/00 A299 RMK A01 T01250004  RH  044%=      5-min Rain = 0
KST4 191531Z 20010KT 13/00 A299 RMK A01 T01260003  RH  043%=      5-min Rain = 0
KST4 191532Z 20012KT 13/00 A299 RMK A01 T01270003  RH  043%=      5-min Rain = 0
KST4 191533Z 19012KT 13/00 A299 RMK A01 T01270004  RH  043%=      5-min Rain = 0
KST4 191534Z 19012KT 13/M00 A299 RMK A01 T01281001  RH  041%=      5-min Rain = 0
KST4 191535Z 19012KT 13/00 A299 RMK A01 T01280001  RH  042%=      5-min Rain = 0
KST4 191536Z 19011KT 13/00 A299 RMK A01 T01290004  RH  042%=      5-min Rain = 0
KST4 191537Z 19013KT 13/00 A2989 RMK A01 T01300003  RH  042%=      5-min Rain = 0
KST4 191538Z 19014KT 13/00 A2989 RMK A01 T013100-0  RH  040%=      5-min Rain = 0
KST4 191539Z 20014KT 13/M00 A2989 RMK A01 T01311001  RH  040%=      5-min Rain = 0
KST4 191540Z 20012KT 13/00 A2989 RMK A01 T01310001  RH  041%=      5-min Rain = 0
KST4 191541Z 21012KT 13/01 A2989 RMK A01 T01310007  RH  043%=      5-min Rain = 0
KST4 191542Z 20013KT 13/01 A2989 RMK A01 T01310008  RH  043%=      5-min Rain = 0
KST4 191543Z 20010KT 13/01 A2989 RMK A01 T01320009  RH  043%=      5-min Rain = 0
KST4 191544Z 20011KT 13/01 A2989 RMK A01 T01320010  RH  043%=      5-min Rain = 0
KST4 191545Z 19012KT 13/01 A2989 RMK A01 T01340011  RH  043%=      5-min Rain = 0
KST4 191546Z 20012KT 14/01 A2989 RMK A01 T01350006  RH  041%=      5-min Rain = 0
KST4 191547Z 19012KT 14/01 A2989 RMK A01 T01360006  RH  041%=      5-min Rain = 0
KST4 191548Z 20013KT 14/01 A2989 RMK A01 T01370006  RH  041%=      5-min Rain = 0
KST4 191549Z 19014KT 14/00 A2989 RMK A01 T01370004  RH  040%=      5-min Rain = 0
KST4 191550Z 19012KT 14/00 A2989 RMK A01 T01380003  RH  040%=      5-min Rain = 0
KST4 191551Z 19010KT 14/01 A2989 RMK A01 T01400010  RH  041%=      5-min Rain = 0
KST4 191552Z 20012KT 14/01 A2989 RMK A01 T01410011  RH  041%=      5-min Rain = 0
KST4 191553Z 20014KT 14/01 A2989 RMK A01 T01410008  RH  040%=      5-min Rain = 0
KST4 191554Z 20014KT 14/01 A2989 RMK A01 T01410006  RH  040%=      5-min Rain = 0
KST4 191555Z 20012KT 14/01 A2989 RMK A01 T01410006  RH  040%=      5-min Rain = 0
KST4 191556Z 19011KT 14/01 A2989 RMK A01 T01420011  RH  041%=      5-min Rain = 0
KST4 191557Z 20014KT 14/01 A2989 RMK A01 T01430007  RH  039%=      5-min Rain = 0
KST4 191558Z 19013KT 14/00 A2989 RMK A01 T01440003  RH  038%=      5-min Rain = 0
KST4 191559Z 19012KT 15/01 A2989 RMK A01 T01450009  RH  039%=      5-min Rain = 0
KST4 191600Z 19015KT 15/01 A2989 RMK A01 T01460006  RH  038%=      5-min Rain = 0
KST4 191601Z 19015KT 15/00 A2989 RMK A01 T01470004  RH  038%=      5-min Rain = 0
KST4 191602Z 19016KT 15/00 A2989 RMK A01 T01470002  RH  037%=      5-min Rain = 0
KST4 191603Z 18014KT 15/00 A2989 RMK A01 T01460000  RH  037%=      5-min Rain = 0
KST4 191604Z 19014KT 15/00 A2989 RMK A01 T01470003  RH  037%=      5-min Rain = 0
KST4 191605Z 19016KT 15/00 A2989 RMK A01 T01490003  RH  037%=      5-min Rain = 0
KST4 191606Z 19015KT 15/00 A2989 RMK A01 T01500002  RH  036%=      5-min Rain = 0
KST4 191607Z 19012KT 15/01 A2989 RMK A01 T01500006  RH  037%=      5-min Rain = 0
KST4 191608Z 20012KT 15/01 A2989 RMK A01 T01520011  RH  038%=      5-min Rain = 0
KST4 191609Z 20014KT 15/00 A2989 RMK A01 T01540004  RH  036%=      5-min Rain = 0
KST4 191610Z 20012KT 15/01 A2989 RMK A01 T01540005  RH  036%=      5-min Rain = 0
KST4 191611Z 20013KT 16/01 A2989 RMK A01 T01550006  RH  036%=      5-min Rain = 0
KST4 191612Z 20015KT 16/01 A2989 RMK A01 T01560005  RH  036%=      5-min Rain = 0
KST4 191613Z 20015KT 16/01 A2989 RMK A01 T01580007  RH  036%=      5-min Rain = 0
KST4 191614Z 20015KT 16/00 A2989 RMK A01 T01590003  RH  035%=      5-min Rain = 0
KST4 191615Z 20013KT 16/00 A2989 RMK A01 T01590003  RH  034%=      5-min Rain = 0
KST4 191616Z 19014KT 16/01 A2989 RMK A01 T01600005  RH  035%=      5-min Rain = 0
KST4 191617Z 19015KT 16/00 A2989 RMK A01 T01610001  RH  034%=      5-min Rain = 0
KST4 191618Z 20012KT 16/01 A2989 RMK A01 T01610005  RH  035%=      5-min Rain = 0
KST4 191619Z 20012KT 16/01 A2989 RMK A01 T01630012  RH  036%=      5-min Rain = 0
KST4 191620Z 19012KT 17/01 A2989 RMK A01 T01650009  RH  035%=      5-min Rain = 0
KST4 191621Z 20015KT 17/00 A2989 RMK A01 T01660003  RH  033%=      5-min Rain = 0
KST4 191622Z 21018KT 17/00 A2989 RMK A01 T01660003  RH  033%=      5-min Rain = 0
KST4 191623Z 21016KT 17/00 A2989 RMK A01 T016600-0  RH  032%=      5-min Rain = 0
KST4 191624Z 21016KT 17/01 A2989 RMK A01 T01660005  RH  034%=      5-min Rain = 0
KST4 191625Z 20018KT 17/00 A2988 RMK A01 T01660001  RH  032%=      5-min Rain = 0
KST4 191626Z 20017KT 17/00 A2988 RMK A01 T01670001  RH  032%=      5-min Rain = 0
KST4 191627Z 20018KT 17/00 A2988 RMK A01 T01680002  RH  032%=      5-min Rain = 0
KST4 191628Z 21016KT 17/00 A2988 RMK A01 T01690003  RH  032%=      5-min Rain = 0
KST4 191629Z 19015KT 17/00 A2988 RMK A01 T01690003  RH  032%=      5-min Rain = 0
KST4 191630Z 20015KT 17/00 A2988 RMK A01 T01700003  RH  032%=      5-min Rain = 0
KST4 191631Z 20016KT 17/00 A2988 RMK A01 T01710002  RH  032%=      5-min Rain = 0
KST4 191632Z 20018KT 17/00 A2988 RMK A01 T01720002  RH  032%=      5-min Rain = 0
KST4 191633Z 20017KT 17/00 A2988 RMK A01 T01720002  RH  032%=      5-min Rain = 0
KST4 191634Z 20020KT 17/00 A2988 RMK A01 T01720001  RH  031%=      5-min Rain = 0
KST4 191635Z 20020KT 17/M00 A2988 RMK A01 T01721002  RH  031%=      5-min Rain = 0
KST4 191636Z 20019KT 17/00 A2988 RMK A01 T01720000  RH  031%=      5-min Rain = 0
KST4 191637Z 20019KT 17/M00 A2988 RMK A01 T01721001  RH  031%=      5-min Rain = 0
KST4 191638Z 20019KT 17/00 A2988 RMK A01 T01730001  RH  031%=      5-min Rain = 0
KST4 191639Z 19016KT 18/01 A2988 RMK A01 T01750006  RH  032%=      5-min Rain = 0
KST4 191640Z 19016KT 18/00 A2988 RMK A01 T01770004  RH  031%=      5-min Rain = 0
KST4 191641Z 20016KT 18/00 A2988 RMK A01 T01780003  RH  031%=      5-min Rain = 0
KST4 191642Z 20017KT 18/00 A2988 RMK A01 T01790001  RH  030%=      5-min Rain = 0
KST4 191643Z 19017KT 18/00 A2988 RMK A01 T01780004  RH  031%=      5-min Rain = 0
KST4 191644Z 19015KT 18/01 A2988 RMK A01 T01780005  RH  031%=      5-min Rain = 0
KST4 191645Z 19019KT 18/00 A2988 RMK A01 T01790004  RH  031%=      5-min Rain = 0
KST4 191646Z 20018KT 18/00 A2988 RMK A01 T01800002  RH  030%=      5-min Rain = 0
KST4 191647Z 20020KT 18/01 A2988 RMK A01 T01790005  RH  031%=      5-min Rain = 0
KST4 191648Z 21018KT 18/00 A2988 RMK A01 T01780004  RH  031%=      5-min Rain = 0
KST4 191649Z 21017KT 18/00 A2988 RMK A01 T01780003  RH  031%=      5-min Rain = 0
KST4 191650Z 20016KT 18/01 A2988 RMK A01 T01780005  RH  031%=      5-min Rain = 0
KST4 191651Z 21016KT 18/00 A2988 RMK A01 T01780004  RH  031%=      5-min Rain = 0
KST4 191652Z 21014KT 18/01 A2988 RMK A01 T01790010  RH  032%=      5-min Rain = 0
KST4 191653Z 21018G23KT 18/01 A2988 RMK A01 T01810013  RH  032%=      5-min Rain = 0
KST4 191654Z 21023KT 18/00 A2988 RMK A01 T01810004  RH  030%=      5-min Rain = 0
KST4 191655Z 21023KT 18/00 A2988 RMK A01 T01790003  RH  031%=      5-min Rain = 0
KST4 191656Z 21022G27KT 18/00 A2988 RMK A01 T01790003  RH  031%=      5-min Rain = 0
KST4 191657Z 22021KT 18/01 A2987 RMK A01 T01790005  RH  031%=      5-min Rain = 0
KST4 191658Z 21021KT 18/01 A2987 RMK A01 T01790005  RH  031%=      5-min Rain = 0
KST4 191659Z 21021KT 18/00 A2987 RMK A01 T01790002  RH  030%=      5-min Rain = 0
KST4 191700Z 21022G27KT 18/00 A2987 RMK A01 T01790003  RH  030%=      5-min Rain = 0
KST4 191701Z 22020KT 18/00 A2987 RMK A01 T01780003  RH  031%=      5-min Rain = 0
KST4 191702Z 21020KT 18/01 A2987 RMK A01 T01770007  RH  032%=      5-min Rain = 0
KST4 191703Z 20022KT 18/00 A2987 RMK A01 T01770002  RH  031%=      5-min Rain = 0
KST4 191704Z 20019G24KT 18/00 A2987 RMK A01 T01780003  RH  031%=      5-min Rain = 0
KST4 191705Z 21018KT 18/01 A2987 RMK A01 T01780006  RH  032%=      5-min Rain = 0
KST4 191706Z 21020KT 18/00 A2987 RMK A01 T01770003  RH  031%=      5-min Rain = 0
KST4 191707Z 21018KT 18/00 A2987 RMK A01 T01770004  RH  031%=      5-min Rain = 0
KST4 191708Z 21018KT 18/01 A2987 RMK A01 T01770005  RH  031%=      5-min Rain = 0
KST4 191709Z 21019KT 18/01 A2987 RMK A01 T01770007  RH  032%=      5-min Rain = 0
KST4 191710Z 21018KT 18/01 A2987 RMK A01 T01780007  RH  032%=      5-min Rain = 0
KST4 191711Z 20017G22KT 18/01 A2987 RMK A01 T01790009  RH  032%=      5-min Rain = 0
KST4 191712Z 20019KT 18/01 A2987 RMK A01 T01810006  RH  031%=      5-min Rain = 0
KST4 191713Z 19018KT 18/01 A2987 RMK A01 T01810008  RH  031%=      5-min Rain = 0
KST4 191714Z 20018KT 18/01 A2987 RMK A01 T01820007  RH  031%=      5-min Rain = 0
KST4 191715Z 19021KT 18/01 A2987 RMK A01 T01830005  RH  030%=      5-min Rain = 0
KST4 191716Z 20020KT 18/01 A2987 RMK A01 T01830005  RH  030%=      5-min Rain = 0
KST4 191717Z 21019KT 18/01 A2987 RMK A01 T01840009  RH  031%=      5-min Rain = 0
KST4 191718Z 21020KT 18/01 A2987 RMK A01 T01840009  RH  031%=      5-min Rain = 0
KST4 191719Z 21023KT 19/01 A2986 RMK A01 T01850007  RH  030%=      5-min Rain = 0
KST4 191720Z 21023KT 18/00 A2986 RMK A01 T01830003  RH  030%=      5-min Rain = 0
KST4 191721Z 22021KT 18/01 A2986 RMK A01 T01820006  RH  031%=      5-min Rain = 0
KST4 191722Z 22016KT 18/01 A2986 RMK A01 T01820012  RH  032%=      5-min Rain = 0
KST4 191723Z 22019KT 18/01 A2986 RMK A01 T01830012  RH  032%=      5-min Rain = 0
KST4 191724Z 22022KT 18/01 A2986 RMK A01 T01830006  RH  030%=      5-min Rain = 0
KST4 191725Z 22023KT 18/01 A2986 RMK A01 T01820005  RH  030%=      5-min Rain = 0
KST4 191726Z 22021KT 18/01 A2986 RMK A01 T01810005  RH  031%=      5-min Rain = 0
KST4 191727Z 22020KT 18/01 A2986 RMK A01 T01800006  RH  031%=      5-min Rain = 0
KST4 191728Z 21021KT 18/01 A2986 RMK A01 T01810005  RH  030%=      5-min Rain = 0
KST4 191729Z 21021KT 18/01 A2986 RMK A01 T01830008  RH  031%=      5-min Rain = 0
KST4 191730Z 22017G22KT 18/01 A2986 RMK A01 T01840007  RH  030%=      5-min Rain = 0
KST4 191731Z 22021KT 19/01 A2986 RMK A01 T01850011  RH  031%=      5-min Rain = 0
KST4 191732Z 22015G20KT 18/01 A2986 RMK A01 T01820012  RH  032%=      5-min Rain = 0
KST4 191733Z 20020KT 18/01 A2986 RMK A01 T01830013  RH  032%=      5-min Rain = 0
KST4 191734Z 20021KT 18/00 A2986 RMK A01 T01840004  RH  030%=      5-min Rain = 0
KST4 191735Z 22019KT 18/01 A2986 RMK A01 T01840007  RH  030%=      5-min Rain = 0
KST4 191736Z 21020KT 18/01 A2986 RMK A01 T01830007  RH  031%=      5-min Rain = 0
KST4 191737Z 21017G22KT 18/01 A2986 RMK A01 T01820010  RH  031%=      5-min Rain = 0
KST4 191738Z 20017KT 18/01 A2986 RMK A01 T01830009  RH  031%=      5-min Rain = 0
KST4 191739Z 20018KT 18/01 A2986 RMK A01 T01830008  RH  031%=      5-min Rain = 0
KST4 191740Z 22020G26KT 18/01 A2986 RMK A01 T01830010  RH  031%=      5-min Rain = 0
KST4 191741Z 21022KT 18/00 A2986 RMK A01 T01800003  RH  030%=      5-min Rain = 0
KST4 191742Z 20021KT 18/00 A2985 RMK A01 T01770002  RH  031%=      5-min Rain = 0
KST4 191743Z 21019KT 18/00 A2985 RMK A01 T01760003  RH  031%=      5-min Rain = 0
KST4 191744Z 21014KT 18/01 A2985 RMK A01 T01760012  RH  033%=      5-min Rain = 0
KST4 191745Z 21019KT 18/01 A2985 RMK A01 T01790010  RH  032%=      5-min Rain = 0
KST4 191746Z 22018KT 18/01 A2985 RMK A01 T01810005  RH  031%=      5-min Rain = 0
KST4 191747Z 22016KT 18/01 A2985 RMK A01 T01820012  RH  032%=      5-min Rain = 0
KST4 191748Z 21018KT 18/01 A2985 RMK A01 T01830008  RH  031%=      5-min Rain = 0
KST4 191749Z 20018KT 18/01 A2985 RMK A01 T01820006  RH  031%=      5-min Rain = 0
KST4 191750Z 20020KT 18/00 A2985 RMK A01 T01820004  RH  030%=      5-min Rain = 0
KST4 191751Z 21020G25KT 18/01 A2985 RMK A01 T01830006  RH  030%=      5-min Rain = 0
KST4 191752Z 21021KT 18/00 A2985 RMK A01 T01830004  RH  030%=      5-min Rain = 0
KST4 191753Z 21019KT 18/00 A2985 RMK A01 T01820003  RH  030%=      5-min Rain = 0
KST4 191754Z 21020KT 18/00 A2984 RMK A01 T01820004  RH  030%=      5-min Rain = 0
KST4 191755Z 22017KT 18/01 A2984 RMK A01 T01820009  RH  031%=      5-min Rain = 0
KST4 191756Z 22016KT 18/01 A2984 RMK A01 T01840009  RH  031%=      5-min Rain = 0
KST4 191757Z 22017KT 18/01 A2984 RMK A01 T01840007  RH  030%=      5-min Rain = 0
KST4 191758Z 21016G21KT 18/01 A2984 RMK A01 T01840010  RH  031%=      5-min Rain = 0
KST4 191759Z 21021KT 19/00 A2984 RMK A01 T01850004  RH  030%=      5-min Rain = 0
KST4 191800Z 20019KT 19/00 A2984 RMK A01 T01850003  RH  029%=      5-min Rain = 0
KST4 191801Z 21017KT 19/00 A2984 RMK A01 T01850003  RH  029%=      5-min Rain = 0
KST4 191802Z 21018KT 18/01 A2984 RMK A01 T01840006  RH  030%=      5-min Rain = 0
KST4 191803Z 22019KT 19/00 A2984 RMK A01 T01850002  RH  029%=      5-min Rain = 0
KST4 191804Z 22018KT 19/01 A2984 RMK A01 T01860005  RH  030%=      5-min Rain = 0
KST4 191805Z 22014KT 19/01 A2984 RMK A01 T01860008  RH  030%=      5-min Rain = 0
KST4 191806Z 21016KT 19/01 A2984 RMK A01 T01890009  RH  030%=      5-min Rain = 0
KST4 191807Z 20014KT 19/01 A2984 RMK A01 T01930013  RH  030%=      5-min Rain = 0
KST4 191808Z 20019KT 20/01 A2983 RMK A01 T01950010  RH  029%=      5-min Rain = 0
KST4 191809Z 20016KT 20/01 A2984 RMK A01 T01950007  RH  028%=      5-min Rain = 0
KST4 191810Z 20019KT 20/01 A2983 RMK A01 T01950007  RH  028%=      5-min Rain = 0
KST4 191811Z 21018G23KT 20/00 A2983 RMK A01 T01970001  RH  027%=      5-min Rain = 0
KST4 191812Z 22019KT 20/00 A2983 RMK A01 T01980002  RH  027%=      5-min Rain = 0
KST4 191813Z 22020KT 20/01 A2983 RMK A01 T01980006  RH  028%=      5-min Rain = 0
KST4 191814Z 22021G26KT 20/00 A2983 RMK A01 T01990002  RH  027%=      5-min Rain = 0
KST4 191815Z 22020KT 20/M00 A2983 RMK A01 T01991001  RH  026%=      5-min Rain = 0
KST4 191816Z 22020G28KT 20/00 A2983 RMK A01 T02010003  RH  027%=      5-min Rain = 0
KST4 191817Z 22024G29KT 20/00 A2983 RMK A01 T020200-0  RH  026%=      5-min Rain = 0
KST4 191818Z 22021KT 20/00 A2983 RMK A01 T02010001  RH  026%=      5-min Rain = 0
KST4 191819Z 22022KT 20/M00 A2983 RMK A01 T02011002  RH  026%=      5-min Rain = 0
KST4 191820Z 21022KT 20/M00 A2983 RMK A01 T01991002  RH  026%=      5-min Rain = 0
KST4 191821Z 22023KT 20/M00 A2983 RMK A01 T01981003  RH  026%=      5-min Rain = 0
KST4 191822Z 22020KT 20/M00 A2983 RMK A01 T01971001  RH  026%=      5-min Rain = 0
KST4 191823Z 22020KT 20/M00 A2983 RMK A01 T01971002  RH  026%=      5-min Rain = 0
KST4 191824Z 22017KT 20/M00 A2983 RMK A01 T01971003  RH  026%=      5-min Rain = 0
KST4 191825Z 22018KT 20/M00 A2983 RMK A01 T01971002  RH  026%=      5-min Rain = 0
KST4 191826Z 22017KT 20/00 A2983 RMK A01 T01970001  RH  027%=      5-min Rain = 0
KST4 191827Z 21014KT 20/00 A2983 RMK A01 T01980001  RH  027%=      5-min Rain = 0
KST4 191828Z 20017KT 20/00 A2983 RMK A01 T01990004  RH  027%=      5-min Rain = 0
KST4 191829Z 21016KT 20/00 A2983 RMK A01 T02010002  RH  026%=      5-min Rain = 0
KST4 191830Z 21018KT 20/00 A2983 RMK A01 T02020001  RH  026%=      5-min Rain = 0
KST4 191831Z 20018KT 20/00 A2982 RMK A01 T02010001  RH  026%=      5-min Rain = 0
KST4 191832Z 21018KT 20/00 A2982 RMK A01 T01990001  RH  026%=      5-min Rain = 0
KST4 191833Z 20019KT 20/M00 A2982 RMK A01 T01981002  RH  026%=      5-min Rain = 0
KST4 191834Z 20022KT 20/M00 A2982 RMK A01 T01991003  RH  026%=      5-min Rain = 0
KST4 191835Z 20021KT 20/M01 A2982 RMK A01 T01991005  RH  025%=      5-min Rain = 0
KST4 191836Z 20020KT 20/M00 A2982 RMK A01 T01991003  RH  026%=      5-min Rain = 0
KST4 191837Z 21018KT 20/00 A2982 RMK A01 T019900-0  RH  026%=      5-min Rain = 0
KST4 191838Z 21017KT 20/M00 A2982 RMK A01 T02001003  RH  026%=      5-min Rain = 0
KST4 191839Z 21017KT 20/00 A2982 RMK A01 T019900-0  RH  026%=      5-min Rain = 0
KST4 191840Z 21017KT 20/00 A2982 RMK A01 T02000001  RH  026%=      5-min Rain = 0
KST4 191841Z 20014KT 20/00 A2982 RMK A01 T02010003  RH  027%=      5-min Rain = 0
KST4 191842Z 20016KT 20/01 A2982 RMK A01 T02020005  RH  027%=      5-min Rain = 0
KST4 191843Z 20018KT 20/00 A2982 RMK A01 T02030001  RH  026%=      5-min Rain = 0
KST4 191844Z 20016KT 20/00 A2982 RMK A01 T02040003  RH  026%=      5-min Rain = 0
KST4 191845Z 20017KT 21/00 A2981 RMK A01 T02060002  RH  026%=      5-min Rain = 0
KST4 191846Z 20014KT 21/M00 A2981 RMK A01 T02061001  RH  025%=      5-min Rain = 0
KST4 191847Z 19014KT 21/01 A2981 RMK A01 T02070005  RH  026%=      5-min Rain = 0
KST4 191848Z 19013KT 21/01 A2981 RMK A01 T02080007  RH  026%=      5-min Rain = 0
KST4 191849Z 20019KT 21/00 A2981 RMK A01 T02090003  RH  025%=      5-min Rain = 0
KST4 191850Z 20018KT 21/M00 A2981 RMK A01 T02081001  RH  025%=      5-min Rain = 0
KST4 191851Z 21020KT 21/00 A2981 RMK A01 T02070000  RH  025%=      5-min Rain = 0
KST4 191852Z 20018KT 21/00 A2981 RMK A01 T02050000  RH  025%=      5-min Rain = 0
KST4 191853Z 20017KT 20/M00 A2981 RMK A01 T02041002  RH  025%=      5-min Rain = 0
KST4 191854Z 21013KT 21/01 A2981 RMK A01 T02050005  RH  026%=      5-min Rain = 0
KST4 191855Z 21011KT 21/01 A2981 RMK A01 T02060008  RH  027%=      5-min Rain = 0
KST4 191856Z 21013G18KT 21/01 A2981 RMK A01 T02070010  RH  027%=      5-min Rain = 0
KST4 191857Z 20017KT 21/00 A298 RMK A01 T02100000  RH  025%=      5-min Rain = 0
KST4 191858Z 20019KT 21/M00 A298 RMK A01 T02111002  RH  024%=      5-min Rain = 0
KST4 191859Z 20015KT 21/00 A2981 RMK A01 T02130003  RH  025%=      5-min Rain = 0
KST4 191900Z 21011KT 22/01 A298 RMK A01 T02170010  RH  025%=      5-min Rain = 0
KST4 191901Z 21016KT 22/02 A298 RMK A01 T02200015  RH  026%=      5-min Rain = 0
KST4 191902Z 20018KT 22/01 A298 RMK A01 T02240008  RH  024%=      5-min Rain = 0
KST4 191903Z 21017KT 22/00 A298 RMK A01 T02240001  RH  023%=      5-min Rain = 0
KST4 191904Z 19019KT 22/00 A298 RMK A01 T02220000  RH  023%=      5-min Rain = 0
KST4 191905Z 20015KT 22/M00 A298 RMK A01 T02221002  RH  023%=      5-min Rain = 0
KST4 191906Z 21018KT 22/00 A298 RMK A01 T02230003  RH  023%=      5-min Rain = 0
KST4 191907Z 21017G23KT 23/M00 A298 RMK A01 T02261001  RH  022%=      5-min Rain = 0
KST4 191908Z 23021KT 23/M00 A298 RMK A01 T02281002  RH  022%=      5-min Rain = 0
KST4 191909Z 23017KT 23/M01 A298 RMK A01 T02281009  RH  021%=      5-min Rain = 0
KST4 191910Z 22019G25KT 23/M00 A298 RMK A01 T02281003  RH  022%=      5-min Rain = 0
KST4 191911Z 21019KT 23/M01 A298 RMK A01 T02291011  RH  020%=      5-min Rain = 0
KST4 191912Z 21020KT 23/M01 A298 RMK A01 T02291010  RH  020%=      5-min Rain = 0
KST4 191913Z 21021KT 23/M01 A298 RMK A01 T02291008  RH  021%=      5-min Rain = 0
KST4 191914Z 21021KT 23/M01 A298 RMK A01 T02291007  RH  021%=      5-min Rain = 0
KST4 191915Z 21020KT 23/M01 A298 RMK A01 T02271008  RH  021%=      5-min Rain = 0
KST4 191916Z 21016KT 23/M01 A298 RMK A01 T02251006  RH  021%=      5-min Rain = 0
KST4 191917Z 22018KT 23/M00 A298 RMK A01 T02261003  RH  022%=      5-min Rain = 0
KST4 191918Z 22019KT 23/00 A298 RMK A01 T02270000  RH  022%=      5-min Rain = 0
KST4 191919Z 22019KT 23/M00 A298 RMK A01 T02261004  RH  022%=      5-min Rain = 0
KST4 191920Z 22014G19KT 22/M00 A298 RMK A01 T02241003  RH  022%=      5-min Rain = 0
KST4 191921Z 21017KT 22/M00 A298 RMK A01 T02231002  RH  022%=      5-min Rain = 0
KST4 191922Z 21018KT 23/M01 A298 RMK A01 T02251008  RH  021%=      5-min Rain = 0
KST4 191923Z 21018KT 23/M01 A298 RMK A01 T02271009  RH  021%=      5-min Rain = 0
KST4 191924Z 21017KT 23/M01 A298 RMK A01 T02271013  RH  020%=      5-min Rain = 0
KST4 191925Z 22014KT 23/M01 A2979 RMK A01 T02261009  RH  021%=      5-min Rain = 0
KST4 191926Z 24016KT 23/M00 A2979 RMK A01 T02271002  RH  022%=      5-min Rain = 0
KST4 191927Z 24019KT 23/M01 A2979 RMK A01 T02281011  RH  020%=      5-min Rain = 0
KST4 191928Z 22018KT 23/M01 A2979 RMK A01 T02281007  RH  021%=      5-min Rain = 0
KST4 191929Z 23017G22KT 23/M01 A2979 RMK A01 T02271014  RH  020%=      5-min Rain = 0
KST4 191930Z 22017KT 22/M01 A298 RMK A01 T02231010  RH  021%=      5-min Rain = 0
KST4 191931Z 22015KT 22/M01 A298 RMK A01 T02211012  RH  021%=      5-min Rain = 0
KST4 191932Z 22016KT 22/M02 A298 RMK A01 T02191018  RH  020%=      5-min Rain = 0
KST4 191933Z 23019KT 22/M02 A298 RMK A01 T02191018  RH  020%=      5-min Rain = 0
KST4 191934Z 22017KT 22/M01 A298 RMK A01 T02191013  RH  021%=      5-min Rain = 0
KST4 191935Z 22017KT 22/M01 A2979 RMK A01 T02181011  RH  021%=      5-min Rain = 0
KST4 191936Z 22018KT 22/M02 A2979 RMK A01 T02171015  RH  021%=      5-min Rain = 0
KST4 191937Z 22016KT 22/M01 A2979 RMK A01 T02171013  RH  021%=      5-min Rain = 0
KST4 191938Z 22015KT 22/M01 A2979 RMK A01 T02161005  RH  023%=      5-min Rain = 0
KST4 191939Z 23015KT 22/M01 A2979 RMK A01 T02161006  RH  023%=      5-min Rain = 0
KST4 191940Z 23014KT 22/M01 A2979 RMK A01 T02161011  RH  022%=      5-min Rain = 0
KST4 191941Z 23015KT 22/M01 A2979 RMK A01 T02171008  RH  022%=      5-min Rain = 0
KST4 191942Z 23012KT 22/00 A2979 RMK A01 T02170000  RH  024%=      5-min Rain = 0
KST4 191943Z 23014KT 22/00 A2979 RMK A01 T02180001  RH  024%=      5-min Rain = 0
KST4 191944Z 23017G22KT 22/M02 A2979 RMK A01 T02221017  RH  020%=      5-min Rain = 0
KST4 191945Z 23017KT 23/M02 A2979 RMK A01 T02251016  RH  020%=      5-min Rain = 0
KST4 191946Z 24017KT 23/M01 A2979 RMK A01 T02271013  RH  020%=      5-min Rain = 0
KST4 191947Z 24017KT 23/M02 A2979 RMK A01 T02281016  RH  020%=      5-min Rain = 0
KST4 191948Z 24014KT 23/M01 A2979 RMK A01 T02291009  RH  021%=      5-min Rain = 0
KST4 191949Z 24015KT 23/M01 A2979 RMK A01 T02311010  RH  020%=      5-min Rain = 0
KST4 191950Z 24015KT 23/M01 A2979 RMK A01 T02311011  RH  020%=      5-min Rain = 0
KST4 191951Z 24014KT 23/M01 A2979 RMK A01 T02301013  RH  020%=      5-min Rain = 0
KST4 191952Z 25013KT 23/M01 A2979 RMK A01 T02301010  RH  020%=      5-min Rain = 0
KST4 191953Z 23016KT 23/M01 A2978 RMK A01 T02311006  RH  021%=      5-min Rain = 0
KST4 191954Z 21018KT 23/00 A2978 RMK A01 T02330002  RH  022%=      5-min Rain = 0
KST4 191955Z 22017G22KT 23/M01 A2978 RMK A01 T02321005  RH  021%=      5-min Rain = 0
KST4 191956Z 23016KT 23/M00 A2978 RMK A01 T02291004  RH  021%=      5-min Rain = 0
KST4 191957Z 23017KT 23/M01 A2978 RMK A01 T02281010  RH  021%=      5-min Rain = 0
KST4 191958Z 23021KT 23/M02 A2978 RMK A01 T02251015  RH  020%=      5-min Rain = 0
KST4 191959Z 23019KT 22/M02 A2978 RMK A01 T02211016  RH  020%=      5-min Rain = 0
KST4 192000Z 22017KT 22/M02 A2978 RMK A01 T02181017  RH  021%=      5-min Rain = 0
KST4 192001Z 22018KT 22/M02 A2978 RMK A01 T02181015  RH  021%=      5-min Rain = 0
KST4 192002Z 22018KT 22/M02 A2978 RMK A01 T02191015  RH  021%=      5-min Rain = 0
KST4 192003Z 21014KT 22/M01 A2978 RMK A01 T02221014  RH  021%=      5-min Rain = 0
KST4 192004Z 21017KT 23/M02 A2978 RMK A01 T02261018  RH  020%=      5-min Rain = 0
KST4 192005Z 21016KT 23/M02 A2978 RMK A01 T02291015  RH  020%=      5-min Rain = 0
KST4 192006Z 21016KT 23/M02 A2978 RMK A01 T02301015  RH  019%=      5-min Rain = 0
KST4 192007Z 22017KT 23/M02 A2978 RMK A01 T02311020  RH  019%=      5-min Rain = 0
KST4 192008Z 21016KT 23/M02 A2978 RMK A01 T02321016  RH  019%=      5-min Rain = 0
KST4 192009Z 23018KT 23/M02 A2978 RMK A01 T02331015  RH  019%=      5-min Rain = 0
KST4 192010Z 23017KT 23/M02 A2978 RMK A01 T02331019  RH  019%=      5-min Rain = 0
KST4 192011Z 22017KT 23/M02 A2978 RMK A01 T02331020  RH  018%=      5-min Rain = 0
KST4 192012Z 23019KT 23/M02 A2978 RMK A01 T02331020  RH  018%=      5-min Rain = 0
KST4 192013Z 24018KT 23/M01 A2978 RMK A01 T02341014  RH  019%=      5-min Rain = 0
KST4 192014Z 24019KT 23/M02 A2977 RMK A01 T02341022  RH  018%=      5-min Rain = 0
KST4 192015Z 24016G21KT 23/M03 A2977 RMK A01 T02331025  RH  018%=      5-min Rain = 0
KST4 192016Z 24016KT 23/M02 A2977 RMK A01 T02321019  RH  019%=      5-min Rain = 0
KST4 192017Z 23015KT 23/M02 A2977 RMK A01 T02341021  RH  018%=      5-min Rain = 0
KST4 192018Z 23015KT 24/M02 A2977 RMK A01 T02351018  RH  019%=      5-min Rain = 0
KST4 192019Z 23017KT 24/M02 A2977 RMK A01 T02361020  RH  018%=      5-min Rain = 0
KST4 192020Z 24015KT 24/M02 A2977 RMK A01 T02361016  RH  019%=      5-min Rain = 0
KST4 192021Z 25016KT 24/M01 A2977 RMK A01 T02371011  RH  019%=      5-min Rain = 0
KST4 192022Z 24018KT 24/M02 A2977 RMK A01 T02371021  RH  018%=      5-min Rain = 0
KST4 192023Z 22020KT 24/M02 A2977 RMK A01 T02361019  RH  018%=      5-min Rain = 0
KST4 192024Z 22016KT 24/M02 A2977 RMK A01 T02361020  RH  018%=      5-min Rain = 0
KST4 192025Z 22014KT 24/M02 A2977 RMK A01 T02361022  RH  018%=      5-min Rain = 0
KST4 192026Z 23013KT 24/M01 A2977 RMK A01 T02351013  RH  019%=      5-min Rain = 0
KST4 192027Z 21017KT 24/M01 A2977 RMK A01 T02371013  RH  019%=      5-min Rain = 0
KST4 192028Z 21014KT 24/M01 A2977 RMK A01 T02381013  RH  019%=      5-min Rain = 0
KST4 192029Z 22018KT 24/M02 A2977 RMK A01 T02391016  RH  018%=      5-min Rain = 0
KST4 192030Z 22020KT 24/M02 A2977 RMK A01 T02391018  RH  018%=      5-min Rain = 0
KST4 192031Z 22019KT 24/M03 A2977 RMK A01 T02371025  RH  017%=      5-min Rain = 0
KST4 192032Z 22013KT 24/M02 A2977 RMK A01 T02361024  RH  018%=      5-min Rain = 0
KST4 192033Z 23016KT 24/M02 A2977 RMK A01 T02361015  RH  019%=      5-min Rain = 0
KST4 192034Z 24015KT 24/M02 A2977 RMK A01 T02371016  RH  019%=      5-min Rain = 0
KST4 192035Z 24014KT 24/M01 A2977 RMK A01 T02381013  RH  019%=      5-min Rain = 0
KST4 192036Z 23013KT 24/M01 A2977 RMK A01 T02381012  RH  019%=      5-min Rain = 0
KST4 192037Z 22014KT 24/M01 A2977 RMK A01 T02381007  RH  020%=      5-min Rain = 0
KST4 192038Z 20015KT 24/M02 A2977 RMK A01 T02391019  RH  018%=      5-min Rain = 0
KST4 192039Z 21015KT 24/M01 A2977 RMK A01 T02391013  RH  019%=      5-min Rain = 0
KST4 192040Z 22018KT 24/M02 A2977 RMK A01 T02381018  RH  018%=      5-min Rain = 0
KST4 192041Z 23017KT 24/M02 A2977 RMK A01 T02371021  RH  018%=      5-min Rain = 0
KST4 192042Z 23013KT 24/M02 A2977 RMK A01 T02361021  RH  018%=      5-min Rain = 0
KST4 192043Z 22014KT 24/M01 A2976 RMK A01 T02361005  RH  020%=      5-min Rain = 0
KST4 192044Z 21013KT 24/M02 A2976 RMK A01 T02371018  RH  018%=      5-min Rain = 0
KST4 192045Z 22015KT 24/M02 A2976 RMK A01 T02371015  RH  019%=      5-min Rain = 0
KST4 192046Z 21018KT 24/M02 A2976 RMK A01 T02371020  RH  018%=      5-min Rain = 0
KST4 192047Z 22018KT 24/M02 A2976 RMK A01 T02351024  RH  018%=      5-min Rain = 0
KST4 192048Z 22014KT 23/M02 A2976 RMK A01 T02321020  RH  019%=      5-min Rain = 0
KST4 192049Z 21013KT 23/M02 A2976 RMK A01 T02311018  RH  019%=      5-min Rain = 0
KST4 192050Z 20016KT 23/M02 A2976 RMK A01 T02321020  RH  019%=      5-min Rain = 0
KST4 192051Z 20015KT 23/M02 A2976 RMK A01 T02331024  RH  018%=      5-min Rain = 0
KST4 192052Z 20012KT 23/M02 A2976 RMK A01 T02331021  RH  018%=      5-min Rain = 0
KST4 192053Z 20015KT 23/M01 A2976 RMK A01 T02341013  RH  019%=      5-min Rain = 0
KST4 192054Z 21016KT 24/M02 A2976 RMK A01 T02351023  RH  018%=      5-min Rain = 0
KST4 192055Z 21012KT 24/M02 A2976 RMK A01 T02351018  RH  018%=      5-min Rain = 0
KST4 192056Z 21015KT 24/M02 A2976 RMK A01 T02361015  RH  019%=      5-min Rain = 0
KST4 192057Z 23015KT 24/M01 A2976 RMK A01 T02371013  RH  019%=      5-min Rain = 0
KST4 192058Z 23018KT 24/M02 A2976 RMK A01 T02371021  RH  018%=      5-min Rain = 0
KST4 192059Z 24015KT 24/M02 A2976 RMK A01 T02351019  RH  018%=      5-min Rain = 0
KST4 192100Z 24018KT 23/M02 A2976 RMK A01 T02341015  RH  019%=      5-min Rain = 0
KST4 192101Z 24016KT 23/M02 A2976 RMK A01 T02331024  RH  018%=      5-min Rain = 0
KST4 192102Z 24016KT 23/M02 A2976 RMK A01 T02331019  RH  019%=      5-min Rain = 0
KST4 192103Z 23015KT 23/M02 A2976 RMK A01 T02321020  RH  019%=      5-min Rain = 0
KST4 192104Z 24015KT 23/M02 A2976 RMK A01 T02321022  RH  018%=      5-min Rain = 0
KST4 192105Z 22016KT 23/M02 A2976 RMK A01 T02321018  RH  019%=      5-min Rain = 0
KST4 192106Z 22014KT 23/M02 A2976 RMK A01 T02331018  RH  019%=      5-min Rain = 0
KST4 192107Z 22015KT 23/M02 A2976 RMK A01 T02331022  RH  018%=      5-min Rain = 0
KST4 192108Z 23016KT 23/M02 A2976 RMK A01 T02331023  RH  018%=      5-min Rain = 0
KST4 192109Z 23013KT 23/M02 A2976 RMK A01 T02331015  RH  019%=      5-min Rain = 0
KST4 192110Z 24012KT 23/M01 A2976 RMK A01 T02331007  RH  020%=      5-min Rain = 0
KST4 192111Z 24015KT 23/M01 A2976 RMK A01 T02331014  RH  019%=      5-min Rain = 0
KST4 192112Z 24014KT 23/M03 A2976 RMK A01 T02331027  RH  017%=      5-min Rain = 0
KST4 192113Z 23015KT 23/M02 A2976 RMK A01 T02331018  RH  019%=      5-min Rain = 0
KST4 192114Z 23016KT 23/M02 A2976 RMK A01 T02331019  RH  019%=      5-min Rain = 0
KST4 192115Z 24016KT 23/M02 A2976 RMK A01 T02321021  RH  018%=      5-min Rain = 0
KST4 192116Z 24016KT 23/M02 A2976 RMK A01 T02321021  RH  018%=      5-min Rain = 0
KST4 192117Z 24014KT 23/M02 A2976 RMK A01 T02311019  RH  019%=      5-min Rain = 0
KST4 192118Z 24015KT 23/M02 A2976 RMK A01 T02311019  RH  019%=      5-min Rain = 0
KST4 192119Z 24015KT 23/M02 A2976 RMK A01 T02311019  RH  019%=      5-min Rain = 0
KST4 192120Z 24016KT 23/M02 A2976 RMK A01 T02311019  RH  019%=      5-min Rain = 0
KST4 192121Z 24013KT 23/M02 A2976 RMK A01 T02311024  RH  018%=      5-min Rain = 0
KST4 192122Z 24014KT 23/M02 A2976 RMK A01 T02311020  RH  019%=      5-min Rain = 0
KST4 192123Z 24015KT 23/M02 A2976 RMK A01 T02311020  RH  019%=      5-min Rain = 0
KST4 192124Z 24015KT 23/M02 A2976 RMK A01 T02311023  RH  018%=      5-min Rain = 0
KST4 192125Z 24015KT 23/M03 A2976 RMK A01 T02321026  RH  018%=      5-min Rain = 0
KST4 192126Z 23014KT 23/M02 A2976 RMK A01 T02311022  RH  018%=      5-min Rain = 0
KST4 192127Z 22014KT 23/M03 A2976 RMK A01 T02311028  RH  018%=      5-min Rain = 0
KST4 192128Z 23015KT 23/M02 A2976 RMK A01 T02311023  RH  018%=      5-min Rain = 0
KST4 192129Z 23013KT 23/M03 A2976 RMK A01 T02311027  RH  018%=      5-min Rain = 0
KST4 192130Z 24014KT 23/M02 A2976 RMK A01 T02311019  RH  019%=      5-min Rain = 0
KST4 192131Z 23012KT 23/M01 A2976 RMK A01 T02311013  RH  020%=      5-min Rain = 0
KST4 192132Z 23011KT 23/M01 A2976 RMK A01 T02311009  RH  020%=      5-min Rain = 0
KST4 192133Z 23014KT 23/M01 A2976 RMK A01 T02311009  RH  020%=      5-min Rain = 0
KST4 192134Z 23014KT 23/M02 A2976 RMK A01 T02301022  RH  018%=      5-min Rain = 0
KST4 192135Z 23014KT 23/M02 A2976 RMK A01 T02301024  RH  018%=      5-min Rain = 0
KST4 192136Z 23014KT 23/M03 A2976 RMK A01 T02301025  RH  018%=      5-min Rain = 0
KST4 192137Z 23013KT 23/M02 A2976 RMK A01 T02291019  RH  019%=      5-min Rain = 0
KST4 192138Z 23012KT 23/M02 A2976 RMK A01 T02301018  RH  019%=      5-min Rain = 0
KST4 192139Z 23011KT 23/M01 A2976 RMK A01 T02301014  RH  020%=      5-min Rain = 0
KST4 192140Z 23014KT 23/M02 A2976 RMK A01 T02301015  RH  019%=      5-min Rain = 0
KST4 192141Z 23015KT 23/M02 A2976 RMK A01 T02301020  RH  019%=      5-min Rain = 0
KST4 192142Z 23012KT 23/M02 A2976 RMK A01 T02291018  RH  019%=      5-min Rain = 0
KST4 192143Z 22013KT 23/M01 A2975 RMK A01 T02281012  RH  020%=      5-min Rain = 0
KST4 192144Z 22013KT 23/M02 A2975 RMK A01 T02281015  RH  020%=      5-min Rain = 0
KST4 192145Z 22014KT 23/M01 A2975 RMK A01 T02281014  RH  020%=      5-min Rain = 0
KST4 192146Z 22013KT 23/M02 A2975 RMK A01 T02271017  RH  019%=      5-min Rain = 0
KST4 192147Z 22013KT 23/M01 A2975 RMK A01 T02271012  RH  020%=      5-min Rain = 0
KST4 192148Z 23011KT 23/M01 A2975 RMK A01 T02261012  RH  020%=      5-min Rain = 0
KST4 192149Z 23012KT 23/M01 A2975 RMK A01 T02261011  RH  021%=      5-min Rain = 0
KST4 192150Z 23011KT 23/M02 A2975 RMK A01 T02261016  RH  020%=      5-min Rain = 0
KST4 192151Z 23011KT 23/M02 A2975 RMK A01 T02261015  RH  020%=      5-min Rain = 0
KST4 192152Z 23010KT 23/M01 A2975 RMK A01 T02261009  RH  021%=      5-min Rain = 0
KST4 192153Z 23011KT 23/M01 A2975 RMK A01 T02261011  RH  021%=      5-min Rain = 0
KST4 192154Z 23011KT 23/M01 A2975 RMK A01 T02261014  RH  020%=      5-min Rain = 0
KST4 192155Z 23012KT 23/M01 A2975 RMK A01 T02271009  RH  021%=      5-min Rain = 0
KST4 192156Z 23013KT 23/M02 A2975 RMK A01 T02261022  RH  019%=      5-min Rain = 0
KST4 192157Z 22011KT 23/M02 A2975 RMK A01 T02261020  RH  019%=      5-min Rain = 0
KST4 192158Z 22013KT 23/M02 A2975 RMK A01 T02261023  RH  019%=      5-min Rain = 0
KST4 192159Z 23012KT 23/M02 A2975 RMK A01 T02261020  RH  019%=      5-min Rain = 0
KST4 192200Z 22012KT 23/M02 A2975 RMK A01 T02261019  RH  019%=      5-min Rain = 0
KST4 192201Z 22011KT 23/M02 A2975 RMK A01 T02251018  RH  020%=      5-min Rain = 0
KST4 192202Z 22013KT 22/M02 A2975 RMK A01 T02241020  RH  020%=      5-min Rain = 0
KST4 192203Z 22011KT 22/M02 A2975 RMK A01 T02241021  RH  019%=      5-min Rain = 0
KST4 192204Z 23010KT 22/M02 A2975 RMK A01 T02231021  RH  019%=      5-min Rain = 0
KST4 192205Z 23011KT 22/M01 A2975 RMK A01 T02231014  RH  020%=      5-min Rain = 0
KST4 192206Z 23011KT 22/M02 A2975 RMK A01 T02241023  RH  019%=      5-min Rain = 0
KST4 192207Z 23009KT 22/M02 A2975 RMK A01 T02241017  RH  020%=      5-min Rain = 0
KST4 192208Z 22010KT 22/M01 A2975 RMK A01 T02241008  RH  021%=      5-min Rain = 0
KST4 192209Z 23013KT 22/M02 A2975 RMK A01 T02231019  RH  020%=      5-min Rain = 0
KST4 192210Z 23013KT 22/M03 A2975 RMK A01 T02231029  RH  018%=      5-min Rain = 0
KST4 192211Z 22011KT 22/M03 A2975 RMK A01 T02231027  RH  019%=      5-min Rain = 0
KST4 192212Z 23009KT 22/M02 A2975 RMK A01 T02241019  RH  020%=      5-min Rain = 0
KST4 192213Z 23008KT 22/M01 A2975 RMK A01 T02231012  RH  021%=      5-min Rain = 0
KST4 192214Z 22008KT 22/M01 A2975 RMK A01 T02221009  RH  021%=      5-min Rain = 0
KST4 192215Z 22010KT 22/M01 A2975 RMK A01 T02221014  RH  021%=      5-min Rain = 0
KST4 192216Z 23010KT 22/M02 A2975 RMK A01 T02221022  RH  020%=      5-min Rain = 0
KST4 192217Z 23011KT 22/M02 A2975 RMK A01 T02221021  RH  020%=      5-min Rain = 0
KST4 192218Z 23010KT 22/M02 A2975 RMK A01 T02231017  RH  020%=      5-min Rain = 0
KST4 192219Z 23010KT 22/M01 A2975 RMK A01 T02221014  RH  021%=      5-min Rain = 0
KST4 192220Z 23010KT 22/M01 A2975 RMK A01 T02211014  RH  021%=      5-min Rain = 0
KST4 192221Z 23011KT 22/M01 A2975 RMK A01 T02201011  RH  021%=      5-min Rain = 0
KST4 192222Z 23011KT 22/M01 A2975 RMK A01 T02191013  RH  021%=      5-min Rain = 0
KST4 192223Z 23011KT 22/M02 A2975 RMK A01 T02171016  RH  021%=      5-min Rain = 0
KST4 192224Z 23011KT 22/M02 A2975 RMK A01 T02171016  RH  021%=      5-min Rain = 0
KST4 192225Z 23012KT 22/M02 A2975 RMK A01 T02171024  RH  020%=      5-min Rain = 0
KST4 192226Z 23011KT 22/M02 A2975 RMK A01 T02181024  RH  020%=      5-min Rain = 0
KST4 192227Z 23011KT 22/M02 A2975 RMK A01 T02181022  RH  020%=      5-min Rain = 0
KST4 192228Z 23012KT 22/M02 A2975 RMK A01 T02181022  RH  020%=      5-min Rain = 0
KST4 192229Z 23011KT 22/M02 A2975 RMK A01 T02181019  RH  020%=      5-min Rain = 0
KST4 192230Z 23011KT 22/M02 A2975 RMK A01 T02171017  RH  021%=      5-min Rain = 0
KST4 192231Z 23011KT 22/M02 A2975 RMK A01 T02161022  RH  020%=      5-min Rain = 0
KST4 192232Z 23010KT 22/M02 A2975 RMK A01 T02161020  RH  021%=      5-min Rain = 0
KST4 192233Z 23010KT 22/M02 A2975 RMK A01 T02161017  RH  021%=      5-min Rain = 0
KST4 192234Z 23010KT 22/M02 A2975 RMK A01 T02151016  RH  021%=      5-min Rain = 0
KST4 192235Z 23010KT 21/M02 A2975 RMK A01 T02141020  RH  021%=      5-min Rain = 0
KST4 192236Z 23011KT 22/M02 A2975 RMK A01 T02151020  RH  021%=      5-min Rain = 0
KST4 192237Z 23012KT 22/M03 A2975 RMK A01 T02151026  RH  020%=      5-min Rain = 0
KST4 192238Z 23011KT 22/M03 A2975 RMK A01 T02161027  RH  019%=      5-min Rain = 0
KST4 192239Z 23011KT 22/M02 A2975 RMK A01 T02161022  RH  020%=      5-min Rain = 0
KST4 192240Z 23010KT 22/M02 A2975 RMK A01 T02151020  RH  020%=      5-min Rain = 0
KST4 192241Z 23009KT 22/M02 A2975 RMK A01 T02151020  RH  021%=      5-min Rain = 0
KST4 192242Z 23008KT 21/M01 A2975 RMK A01 T02141014  RH  022%=      5-min Rain = 0
KST4 192243Z 23008KT 21/M01 A2975 RMK A01 T02121008  RH  023%=      5-min Rain = 0
KST4 192244Z 23008KT 21/M01 A2975 RMK A01 T02101010  RH  023%=      5-min Rain = 0
KST4 192245Z 23007KT 21/M01 A2975 RMK A01 T02091009  RH  023%=      5-min Rain = 0
KST4 192246Z 23008KT 21/M01 A2975 RMK A01 T02081010  RH  023%=      5-min Rain = 0
KST4 192247Z 23008KT 21/M02 A2975 RMK A01 T02081020  RH  021%=      5-min Rain = 0
KST4 192248Z 23007KT 21/M02 A2975 RMK A01 T02091016  RH  022%=      5-min Rain = 0
KST4 192249Z 23008KT 21/M01 A2975 RMK A01 T02081013  RH  023%=      5-min Rain = 0
KST4 192250Z 23008KT 21/M01 A2975 RMK A01 T02071011  RH  023%=      5-min Rain = 0
KST4 192251Z 23007KT 21/M01 A2975 RMK A01 T02061006  RH  024%=      5-min Rain = 0
KST4 192252Z 23008KT 20/M01 A2975 RMK A01 T02041009  RH  024%=      5-min Rain = 0
KST4 192253Z 23008KT 20/M01 A2975 RMK A01 T02031014  RH  023%=      5-min Rain = 0
KST4 192254Z 23008KT 20/M01 A2975 RMK A01 T02031013  RH  023%=      5-min Rain = 0
KST4 192255Z 23008KT 20/M01 A2975 RMK A01 T02021013  RH  024%=      5-min Rain = 0
KST4 192256Z 23007KT 20/M02 A2975 RMK A01 T02011015  RH  023%=      5-min Rain = 0
KST4 192257Z 23007KT 20/M01 A2975 RMK A01 T02001012  RH  024%=      5-min Rain = 0
KST4 192258Z 23007KT 20/M01 A2975 RMK A01 T01981009  RH  025%=      5-min Rain = 0
KST4 192259Z 23007KT 20/M01 A2975 RMK A01 T01971010  RH  025%=      5-min Rain = 0
KST4 192300Z 23007KT 20/M01 A2975 RMK A01 T01961013  RH  024%=      5-min Rain = 0
KST4 192301Z 23007KT 20/M01 A2975 RMK A01 T01951013  RH  025%=      5-min Rain = 0
KST4 192302Z 23007KT 19/M01 A2975 RMK A01 T01941012  RH  025%=      5-min Rain = 0
KST4 192303Z 23007KT 19/M01 A2975 RMK A01 T01931012  RH  025%=      5-min Rain = 0
KST4 192304Z 23007KT 19/M01 A2975 RMK A01 T01921010  RH  026%=      5-min Rain = 0
KST4 192305Z 23006KT 19/M01 A2975 RMK A01 T01911010  RH  026%=      5-min Rain = 0
KST4 192306Z 23006KT 19/M01 A2975 RMK A01 T01891012  RH  026%=      5-min Rain = 0
KST4 192307Z 23006KT 19/M01 A2975 RMK A01 T01891010  RH  026%=      5-min Rain = 0
KST4 192308Z 22006KT 19/M01 A2975 RMK A01 T01871008  RH  027%=      5-min Rain = 0
KST4 192309Z 23006KT 19/M01 A2975 RMK A01 T01861012  RH  026%=      5-min Rain = 0
KST4 192310Z 22006KT 19/M02 A2975 RMK A01 T01861015  RH  025%=      5-min Rain = 0
KST4 192311Z 22006KT 19/M02 A2975 RMK A01 T01861019  RH  025%=      5-min Rain = 0
KST4 192312Z 22006KT 19/M02 A2975 RMK A01 T01871020  RH  024%=      5-min Rain = 0
KST4 192313Z 23006KT 19/M02 A2975 RMK A01 T01871023  RH  024%=      5-min Rain = 0
KST4 192314Z 23006KT 19/M02 A2975 RMK A01 T01881022  RH  024%=      5-min Rain = 0
KST4 192315Z 23006KT 19/M02 A2975 RMK A01 T01871020  RH  025%=      5-min Rain = 0
KST4 192316Z 22006KT 19/M02 A2975 RMK A01 T01851021  RH  025%=      5-min Rain = 0
KST4 192317Z 22005KT 18/M02 A2975 RMK A01 T01841016  RH  026%=      5-min Rain = 0
KST4 192318Z 22005KT 18/M02 A2975 RMK A01 T01821018  RH  026%=      5-min Rain = 0
KST4 192319Z 22005KT 18/M02 A2975 RMK A01 T01801021  RH  025%=      5-min Rain = 0
KST4 192320Z 22006KT 18/M03 A2975 RMK A01 T01801030  RH  024%=      5-min Rain = 0
KST4 192321Z 23006KT 18/M04 A2975 RMK A01 T01801037  RH  023%=      5-min Rain = 0
KST4 192322Z 23006KT 18/M04 A2975 RMK A01 T01811040  RH  022%=      5-min Rain = 0
KST4 192323Z 23006KT 18/M04 A2975 RMK A01 T01821040  RH  022%=      5-min Rain = 0
KST4 192324Z 23006KT 18/M04 A2975 RMK A01 T01821035  RH  023%=      5-min Rain = 0
KST4 192325Z 23006KT 18/M03 A2975 RMK A01 T01811029  RH  024%=      5-min Rain = 0
KST4 192326Z 23006KT 18/M03 A2975 RMK A01 T01761026  RH  025%=      5-min Rain = 0
KST4 192327Z 23006KT 17/M03 A2975 RMK A01 T01721025  RH  026%=      5-min Rain = 0
KST4 192328Z 23007KT 17/M03 A2975 RMK A01 T01691032  RH  025%=      5-min Rain = 0
KST4 192329Z 23007KT 17/M03 A2975 RMK A01 T01671029  RH  026%=      5-min Rain = 0
KST4 192330Z 22007KT 16/M03 A2975 RMK A01 T01641027  RH  027%=      5-min Rain = 0
KST4 192331Z 23007KT 16/M03 A2975 RMK A01 T01621030  RH  027%=      5-min Rain = 0
KST4 192332Z 23007KT 16/M03 A2975 RMK A01 T01611031  RH  026%=      5-min Rain = 0
KST4 192333Z 23007KT 16/M03 A2975 RMK A01 T01601033  RH  026%=      5-min Rain = 0
KST4 192334Z 23008KT 16/M03 A2975 RMK A01 T01581032  RH  027%=      5-min Rain = 0
KST4 192335Z 23008KT 16/M03 A2975 RMK A01 T01571034  RH  027%=      5-min Rain = 0
KST4 192336Z 23008KT 16/M04 A2975 RMK A01 T01571036  RH  026%=      5-min Rain = 0
KST4 192337Z 23008KT 16/M04 A2975 RMK A01 T01581036  RH  026%=      5-min Rain = 0
KST4 192338Z 23007KT 16/M03 A2975 RMK A01 T01561029  RH  028%=      5-min Rain = 0
KST4 192339Z 23007KT 15/M04 A2975 RMK A01 T01521037  RH  027%=      5-min Rain = 0
KST4 192340Z 23007KT 15/M04 A2975 RMK A01 T01511041  RH  026%=      5-min Rain = 0
KST4 192341Z 23006KT 15/M05 A2975 RMK A01 T01511045  RH  026%=      5-min Rain = 0
KST4 192342Z 23006KT 15/M05 A2975 RMK A01 T01531047  RH  025%=      5-min Rain = 0
KST4 192343Z 23006KT 16/M05 A2975 RMK A01 T01551047  RH  024%=      5-min Rain = 0
KST4 192344Z 23006KT 16/M05 A2974 RMK A01 T01571047  RH  024%=      5-min Rain = 0
KST4 192345Z 23006KT 16/M05 A2974 RMK A01 T01581048  RH  024%=      5-min Rain = 0
KST4 192346Z 23006KT 16/M05 A2974 RMK A01 T01591048  RH  024%=      5-min Rain = 0
KST4 192347Z 23006KT 16/M05 A2974 RMK A01 T01601050  RH  023%=      5-min Rain = 0
KST4 192348Z 23006KT 16/M05 A2974 RMK A01 T01601051  RH  023%=      5-min Rain = 0
KST4 192349Z 23006KT 16/M05 A2975 RMK A01 T01611047  RH  024%=      5-min Rain = 0
KST4 192350Z 23006KT 16/M04 A2975 RMK A01 T01581043  RH  025%=      5-min Rain = 0
KST4 192351Z 23006KT 15/M04 A2975 RMK A01 T01541042  RH  026%=      5-min Rain = 0
KST4 192352Z 23006KT 15/M04 A2975 RMK A01 T01511039  RH  027%=      5-min Rain = 0
KST4 192353Z 23005KT 15/M03 A2975 RMK A01 T01481034  RH  028%=      5-min Rain = 0
KST4 192354Z 23005KT 15/M04 A2975 RMK A01 T01461037  RH  028%=      5-min Rain = 0
KST4 192355Z 23006KT 15/M04 A2975 RMK A01 T01451039  RH  028%=      5-min Rain = 0
KST4 192356Z 23006KT 15/M04 A2975 RMK A01 T01451038  RH  028%=      5-min Rain = 0
KST4 192357Z 23006KT 14/M04 A2975 RMK A01 T01441037  RH  028%=      5-min Rain = 0
KST4 192358Z 23005KT 14/M04 A2975 RMK A01 T01421036  RH  029%=      5-min Rain = 0
KST4 192359Z 23005KT 14/M03 A2975 RMK A01 T01401034  RH  030%=      5-min Rain = 0
KST4 200000Z 23005KT 14/M04 A2975 RMK A01 T01381037  RH  030%=      5-min Rain = 0
KST4 200001Z 23005KT 14/M04 A2975 RMK A01 T01361041  RH  029%=      5-min Rain = 0
KST4 200002Z 23005KT 14/M04 A2975 RMK A01 T01361042  RH  029%=      5-min Rain = 0
KST4 200003Z 23006KT 14/M05 A2975 RMK A01 T01371047  RH  028%=      5-min Rain = 0
KST4 200004Z 23006KT 14/M05 A2975 RMK A01 T01391050  RH  027%=      5-min Rain = 0
KST4 200005Z 23006KT 14/M05 A2975 RMK A01 T01401051  RH  026%=      5-min Rain = 0
KST4 200006Z 23005KT 14/M05 A2975 RMK A01 T01401052  RH  026%=      5-min Rain = 0
KST4 200007Z 23005KT 14/M05 A2975 RMK A01 T01401052  RH  026%=      5-min Rain = 0
KST4 200008Z 23005KT 14/M05 A2975 RMK A01 T01401050  RH  026%=      5-min Rain = 0
KST4 200009Z 23005KT 14/M05 A2975 RMK A01 T01391050  RH  027%=      5-min Rain = 0
KST4 200010Z 23005KT 14/M05 A2975 RMK A01 T01381053  RH  026%=      5-min Rain = 0
KST4 200011Z 23005KT 14/M05 A2975 RMK A01 T01381054  RH  026%=      5-min Rain = 0
KST4 200012Z 23005KT 14/M06 A2975 RMK A01 T01381057  RH  025%=      5-min Rain = 0
KST4 200013Z 23005KT 14/M06 A2975 RMK A01 T01391057  RH  025%=      5-min Rain = 0
KST4 200014Z 23005KT 14/M06 A2976 RMK A01 T01391057  RH  025%=      5-min Rain = 0
KST4 200015Z 23005KT 14/M06 A2976 RMK A01 T01381059  RH  025%=      5-min Rain = 0
KST4 200016Z 23005KT 14/M06 A2976 RMK A01 T01381060  RH  025%=      5-min Rain = 0
KST4 200017Z 23005KT 14/M06 A2976 RMK A01 T01381060  RH  025%=      5-min Rain = 0
KST4 200018Z 23005KT 14/M06 A2976 RMK A01 T01381060  RH  025%=      5-min Rain = 0
KST4 200019Z 23005KT 14/M06 A2976 RMK A01 T01351060  RH  025%=      5-min Rain = 0
KST4 200020Z 22005KT 13/M06 A2976 RMK A01 T01341059  RH  026%=      5-min Rain = 0
KST4 200021Z 22005KT 13/M06 A2976 RMK A01 T01331057  RH  026%=      5-min Rain = 0
KST4 200022Z 22005KT 14/M06 A2976 RMK A01 T01351056  RH  026%=      5-min Rain = 0
KST4 200023Z 22005KT 14/M06 A2976 RMK A01 T01371057  RH  026%=      5-min Rain = 0
KST4 200024Z 22005KT 14/M06 A2976 RMK A01 T01391056  RH  025%=      5-min Rain = 0
KST4 200025Z 23005KT 14/M05 A2976 RMK A01 T01391054  RH  026%=      5-min Rain = 0
KST4 200026Z 22005KT 14/M05 A2976 RMK A01 T01391053  RH  026%=      5-min Rain = 0
KST4 200027Z 22005KT 14/M05 A2976 RMK A01 T01391054  RH  026%=      5-min Rain = 0
KST4 200028Z 23005KT 14/M05 A2976 RMK A01 T01401054  RH  026%=      5-min Rain = 0
KST4 200029Z 23005KT 14/M06 A2976 RMK A01 T01411056  RH  025%=      5-min Rain = 0
KST4 200030Z 23005KT 14/M06 A2976 RMK A01 T01421055  RH  025%=      5-min Rain = 0
KST4 200031Z 23005KT 14/M05 A2976 RMK A01 T01421053  RH  025%=      5-min Rain = 0
KST4 200032Z 23005KT 14/M05 A2976 RMK A01 T01411052  RH  026%=      5-min Rain = 0
KST4 200033Z 23005KT 14/M05 A2976 RMK A01 T01381052  RH  026%=      5-min Rain = 0
KST4 200034Z 23005KT 14/M05 A2976 RMK A01 T01351053  RH  027%=      5-min Rain = 0
KST4 200035Z 24004KT 13/M06 A2976 RMK A01 T01341055  RH  026%=      5-min Rain = 0
KST4 200036Z 23004KT 13/M06 A2976 RMK A01 T01341055  RH  026%=      5-min Rain = 0
KST4 200037Z 23004KT 14/M06 A2976 RMK A01 T01351055  RH  026%=      5-min Rain = 0
KST4 200038Z 23004KT 14/M06 A2976 RMK A01 T01361056  RH  026%=      5-min Rain = 0
KST4 200039Z 23004KT 14/M06 A2975 RMK A01 T01371057  RH  025%=      5-min Rain = 0
KST4 200040Z 23004KT 14/M06 A2975 RMK A01 T01391057  RH  025%=      5-min Rain = 0
KST4 200041Z 23004KT 14/M06 A2975 RMK A01 T01401057  RH  025%=      5-min Rain = 0
KST4 200042Z 23004KT 14/M06 A2975 RMK A01 T01411056  RH  025%=      5-min Rain = 0
KST4 200043Z 23004KT 14/M06 A2975 RMK A01 T01411055  RH  025%=      5-min Rain = 0
KST4 200044Z 22004KT 14/M06 A2975 RMK A01 T01401055  RH  025%=      5-min Rain = 0
KST4 200045Z 22004KT 14/M06 A2975 RMK A01 T01391055  RH  026%=      5-min Rain = 0
KST4 200046Z 22004KT 14/M05 A2975 RMK A01 T01381054  RH  026%=      5-min Rain = 0
KST4 200047Z 22004KT 14/M05 A2975 RMK A01 T01381054  RH  026%=      5-min Rain = 0
KST4 200048Z 22004KT 14/M05 A2975 RMK A01 T01361052  RH  027%=      5-min Rain = 0
KST4 200049Z 22004KT 13/M05 A2975 RMK A01 T01341053  RH  027%=      5-min Rain = 0
KST4 200050Z 22004KT 13/M05 A2975 RMK A01 T01341054  RH  027%=      5-min Rain = 0
KST4 200051Z 21004KT 13/M05 A2975 RMK A01 T01341054  RH  027%=      5-min Rain = 0
KST4 200052Z 22004KT 13/M05 A2975 RMK A01 T01341054  RH  027%=      5-min Rain = 0
KST4 200053Z 22004KT 13/M05 A2975 RMK A01 T01341053  RH  027%=      5-min Rain = 0
KST4 200054Z 22004KT 13/M05 A2975 RMK A01 T01341050  RH  027%=      5-min Rain = 0
KST4 200055Z 22004KT 13/M05 A2975 RMK A01 T01331050  RH  028%=      5-min Rain = 0
KST4 200056Z 22004KT 13/M05 A2975 RMK A01 T01331050  RH  028%=      5-min Rain = 0
KST4 200057Z 23004KT 13/M05 A2975 RMK A01 T01321051  RH  028%=      5-min Rain = 0
KST4 200058Z 23004KT 13/M05 A2975 RMK A01 T01321051  RH  028%=      5-min Rain = 0
KST4 200059Z 23004KT 13/M05 A2975 RMK A01 T01321051  RH  028%=      5-min Rain = 0
KST4 200100Z 23004KT 13/M05 A2975 RMK A01 T01331052  RH  027%=      5-min Rain = 0
KST4 200101Z 23004KT 13/M05 A2975 RMK A01 T01341053  RH  027%=      5-min Rain = 0
KST4 200102Z 23004KT 14/M05 A2975 RMK A01 T01351053  RH  027%=      5-min Rain = 0
KST4 200103Z 22004KT 14/M05 A2975 RMK A01 T01361053  RH  026%=      5-min Rain = 0
KST4 200104Z 22004KT 14/M05 A2975 RMK A01 T01361052  RH  027%=      5-min Rain = 0
KST4 200105Z 22004KT 14/M05 A2975 RMK A01 T01351052  RH  027%=      5-min Rain = 0
KST4 200106Z 22004KT 13/M05 A2975 RMK A01 T01331053  RH  027%=      5-min Rain = 0
KST4 200107Z 22004KT 13/M05 A2975 RMK A01 T01331052  RH  027%=      5-min Rain = 0
KST4 200108Z 22004KT 13/M05 A2975 RMK A01 T01301053  RH  028%=      5-min Rain = 0
KST4 200109Z 22004KT 13/M06 A2975 RMK A01 T01291056  RH  027%=      5-min Rain = 0
KST4 200110Z 22004KT 13/M06 A2975 RMK A01 T01291057  RH  027%=      5-min Rain = 0
KST4 200111Z 23004KT 13/M06 A2975 RMK A01 T01311057  RH  027%=      5-min Rain = 0
KST4 200112Z 23004KT 13/M06 A2975 RMK A01 T01311056  RH  027%=      5-min Rain = 0
KST4 200113Z 22004KT 13/M06 A2975 RMK A01 T01301056  RH  027%=      5-min Rain = 0
KST4 200114Z 22004KT 13/M06 A2975 RMK A01 T01301056  RH  027%=      5-min Rain = 0
KST4 200115Z 22004KT 13/M06 A2975 RMK A01 T01301056  RH  027%=      5-min Rain = 0
KST4 200116Z 22004KT 13/M06 A2976 RMK A01 T01301056  RH  027%=      5-min Rain = 0
KST4 200117Z 22004KT 13/M06 A2976 RMK A01 T01311055  RH  027%=      5-min Rain = 0
KST4 200118Z 22005KT 13/M05 A2976 RMK A01 T01311053  RH  027%=      5-min Rain = 0
KST4 200119Z 21005KT 13/M05 A2976 RMK A01 T01301052  RH  028%=      5-min Rain = 0
KST4 200120Z 21005KT 13/M05 A2976 RMK A01 T01281048  RH  029%=      5-min Rain = 0
KST4 200121Z 21005KT 13/M04 A2976 RMK A01 T01261044  RH  030%=      5-min Rain = 0
KST4 200122Z 21005KT 13/M04 A2976 RMK A01 T01261044  RH  030%=      5-min Rain = 0
KST4 200123Z 21005KT 13/M04 A2976 RMK A01 T01281044  RH  030%=      5-min Rain = 0
KST4 200124Z 21005KT 13/M04 A2976 RMK A01 T01291041  RH  030%=      5-min Rain = 0
KST4 200125Z 21005KT 13/M04 A2976 RMK A01 T01291040  RH  031%=      5-min Rain = 0
KST4 200126Z 21005KT 13/M04 A2976 RMK A01 T01291040  RH  031%=      5-min Rain = 0
KST4 200127Z 21005KT 13/M04 A2976 RMK A01 T01301041  RH  030%=      5-min Rain = 0
KST4 200128Z 21005KT 13/M04 A2976 RMK A01 T01311042  RH  030%=      5-min Rain = 0
KST4 200129Z 21005KT 13/M04 A2976 RMK A01 T01321041  RH  030%=      5-min Rain = 0
KST4 200130Z 21005KT 13/M04 A2976 RMK A01 T01321043  RH  029%=      5-min Rain = 0
KST4 200131Z 21005KT 13/M05 A2976 RMK A01 T01341045  RH  028%=      5-min Rain = 0
KST4 200132Z 21005KT 14/M04 A2976 RMK A01 T01361043  RH  029%=      5-min Rain = 0
KST4 200133Z 20005KT 14/M04 A2976 RMK A01 T01361042  RH  029%=      5-min Rain = 0
KST4 200134Z 20005KT 14/M04 A2976 RMK A01 T01351043  RH  029%=      5-min Rain = 0
KST4 200135Z 20005KT 13/M04 A2976 RMK A01 T01341043  RH  029%=      5-min Rain = 0
KST4 200136Z 19005KT 13/M04 A2976 RMK A01 T01341044  RH  029%=      5-min Rain = 0
KST4 200137Z 19005KT 13/M04 A2976 RMK A01 T01341044  RH  029%=      5-min Rain = 0
KST4 200138Z 19005KT 13/M04 A2976 RMK A01 T01341042  RH  029%=      5-min Rain = 0
KST4 200139Z 18006KT 13/M04 A2976 RMK A01 T01321040  RH  030%=      5-min Rain = 0
KST4 200140Z 17008KT 13/M04 A2976 RMK A01 T01291035  RH  032%=      5-min Rain = 0
KST4 200141Z 16010KT 13/M04 A2976 RMK A01 T01251035  RH  033%=      5-min Rain = 0
KST4 200142Z 17012KT 12/M04 A2976 RMK A01 T01241039  RH  032%=      5-min Rain = 0
KST4 200143Z 16010KT 13/M04 A2976 RMK A01 T01301040  RH  030%=      5-min Rain = 0
KST4 200144Z 16009KT 13/M04 A2976 RMK A01 T01311041  RH  030%=      5-min Rain = 0
KST4 200145Z 16009KT 13/M04 A2976 RMK A01 T01291043  RH  030%=      5-min Rain = 0
KST4 200146Z 16009KT 13/M04 A2976 RMK A01 T01271044  RH  030%=      5-min Rain = 0
KST4 200147Z 16008KT 13/M04 A2976 RMK A01 T01251044  RH  030%=      5-min Rain = 0
KST4 200148Z 16007KT 12/M04 A2976 RMK A01 T01221038  RH  033%=      5-min Rain = 0
KST4 200149Z 15007KT 12/M03 A2976 RMK A01 T01171029  RH  036%=      5-min Rain = 0
KST4 200150Z 15007KT 11/M02 A2976 RMK A01 T01121023  RH  039%=      5-min Rain = 0
KST4 200151Z 16007KT 11/M02 A2976 RMK A01 T01091023  RH  040%=      5-min Rain = 0
KST4 200152Z 16006KT 11/M02 A2976 RMK A01 T01081024  RH  039%=      5-min Rain = 0
KST4 200153Z 16007KT 11/M03 A2976 RMK A01 T01071026  RH  039%=      5-min Rain = 0
KST4 200154Z 16007KT 11/M03 A2976 RMK A01 T01061026  RH  039%=      5-min Rain = 0
KST4 200155Z 16007KT 11/M03 A2976 RMK A01 T01051028  RH  039%=      5-min Rain = 0
KST4 200156Z 16007KT 10/M03 A2976 RMK A01 T01041028  RH  039%=      5-min Rain = 0
KST4 200157Z 16007KT 10/M03 A2976 RMK A01 T01021029  RH  040%=      5-min Rain = 0
KST4 200158Z 16007KT 10/M03 A2976 RMK A01 T01001029  RH  040%=      5-min Rain = 0
KST4 200159Z 16007KT 10/M03 A2976 RMK A01 T00971030  RH  041%=      5-min Rain = 0
KST4 200200Z 16008KT 10/M03 A2976 RMK A01 T00951032  RH  041%=      5-min Rain = 0
KST4 200201Z 16007KT 09/M03 A2976 RMK A01 T00931033  RH  041%=      5-min Rain = 0
KST4 200202Z 16007KT 09/M04 A2976 RMK A01 T00931035  RH  040%=      5-min Rain = 0
KST4 200203Z 16006KT 10/M03 A2976 RMK A01 T01001032  RH  039%=      5-min Rain = 0
KST4 200204Z 16007KT 10/M03 A2976 RMK A01 T01021027  RH  040%=      5-min Rain = 0
KST4 200205Z 16007KT 11/M03 A2976 RMK A01 T01051026  RH  040%=      5-min Rain = 0
KST4 200206Z 16007KT 11/M03 A2976 RMK A01 T01111027  RH  038%=      5-min Rain = 0
KST4 200207Z 16007KT 12/M03 A2976 RMK A01 T01151025  RH  037%=      5-min Rain = 0
KST4 200208Z 16007KT 12/M03 A2976 RMK A01 T01161028  RH  037%=      5-min Rain = 0
KST4 200209Z 16007KT 12/M03 A2976 RMK A01 T01171030  RH  036%=      5-min Rain = 0
KST4 200210Z 16007KT 12/M03 A2976 RMK A01 T01191032  RH  035%=      5-min Rain = 0
KST4 200211Z 17008KT 12/M03 A2976 RMK A01 T01211033  RH  034%=      5-min Rain = 0
KST4 200212Z 16008KT 12/M03 A2976 RMK A01 T01221033  RH  034%=      5-min Rain = 0
KST4 200213Z 17007KT 12/M04 A2976 RMK A01 T01241038  RH  032%=      5-min Rain = 0
KST4 200214Z 17007KT 13/M04 A2976 RMK A01 T01271039  RH  031%=      5-min Rain = 0
KST4 200215Z 17007KT 13/M04 A2976 RMK A01 T01291040  RH  031%=      5-min Rain = 0
KST4 200216Z 17007KT 13/M04 A2976 RMK A01 T01311040  RH  030%=      5-min Rain = 0
KST4 200217Z 17008KT 13/M04 A2976 RMK A01 T01331040  RH  030%=      5-min Rain = 0
KST4 200218Z 18008KT 13/M04 A2976 RMK A01 T01341037  RH  030%=      5-min Rain = 0
KST4 200219Z 18008KT 13/M04 A2976 RMK A01 T01341035  RH  031%=      5-min Rain = 0
KST4 200220Z 18008KT 13/M03 A2976 RMK A01 T01341034  RH  031%=      5-min Rain = 0
KST4 200221Z 18007KT 13/M03 A2976 RMK A01 T01331034  RH  031%=      5-min Rain = 0
KST4 200222Z 18007KT 13/M03 A2976 RMK A01 T01331034  RH  031%=      5-min Rain = 0
KST4 200223Z 18007KT 13/M03 A2975 RMK A01 T01321034  RH  031%=      5-min Rain = 0
KST4 200224Z 18008KT 13/M03 A2975 RMK A01 T01311034  RH  032%=      5-min Rain = 0
KST4 200225Z 17008KT 13/M03 A2975 RMK A01 T01301034  RH  032%=      5-min Rain = 0
KST4 200226Z 17009KT 13/M03 A2975 RMK A01 T01301034  RH  032%=      5-min Rain = 0
KST4 200227Z 17009KT 13/M03 A2975 RMK A01 T01291034  RH  032%=      5-min Rain = 0
KST4 200228Z 18009KT 13/M03 A2975 RMK A01 T01291033  RH  032%=      5-min Rain = 0
KST4 200229Z 18009KT 13/M03 A2975 RMK A01 T01281030  RH  033%=      5-min Rain = 0
KST4 200230Z 18009KT 13/M03 A2975 RMK A01 T01261027  RH  034%=      5-min Rain = 0
KST4 200231Z 18009KT 13/M02 A2975 RMK A01 T01251024  RH  036%=      5-min Rain = 0
KST4 200232Z 18009KT 12/M02 A2975 RMK A01 T01231023  RH  036%=      5-min Rain = 0
KST4 200233Z 17009KT 12/M02 A2975 RMK A01 T01221023  RH  036%=      5-min Rain = 0
KST4 200234Z 18009KT 12/M02 A2975 RMK A01 T01221023  RH  036%=      5-min Rain = 0
KST4 200235Z 18009KT 12/M02 A2975 RMK A01 T01221022  RH  037%=      5-min Rain = 0
KST4 200236Z 18009KT 12/M02 A2975 RMK A01 T01221020  RH  037%=      5-min Rain = 0
KST4 200237Z 18009KT 12/M02 A2975 RMK A01 T01211018  RH  038%=      5-min Rain = 0
KST4 200238Z 18009KT 12/M02 A2975 RMK A01 T01201017  RH  038%=      5-min Rain = 0
KST4 200239Z 18009KT 12/M02 A2975 RMK A01 T01191017  RH  039%=      5-min Rain = 0
KST4 200240Z 18009KT 12/M02 A2975 RMK A01 T01181017  RH  039%=      5-min Rain = 0
KST4 200241Z 18009KT 12/M02 A2975 RMK A01 T01171016  RH  039%=      5-min Rain = 0
KST4 200242Z 18009KT 12/M02 A2975 RMK A01 T01161017  RH  040%=      5-min Rain = 0
KST4 200243Z 18008KT 12/M02 A2975 RMK A01 T01151017  RH  040%=      5-min Rain = 0
KST4 200244Z 18009KT 12/M02 A2975 RMK A01 T01151018  RH  040%=      5-min Rain = 0
KST4 200245Z 18009KT 12/M02 A2975 RMK A01 T01151017  RH  040%=      5-min Rain = 0
KST4 200246Z 18009KT 12/M02 A2975 RMK A01 T01151015  RH  040%=      5-min Rain = 0
KST4 200247Z 18009KT 11/M01 A2975 RMK A01 T01131014  RH  041%=      5-min Rain = 0
KST4 200248Z 18009KT 11/M01 A2975 RMK A01 T01111014  RH  042%=      5-min Rain = 0
KST4 200249Z 18009KT 11/M02 A2975 RMK A01 T01101015  RH  042%=      5-min Rain = 0
KST4 200250Z 18008KT 11/M02 A2975 RMK A01 T01091015  RH  042%=      5-min Rain = 0
KST4 200251Z 18008KT 11/M02 A2975 RMK A01 T01081015  RH  042%=      5-min Rain = 0
KST4 200252Z 18008KT 11/M02 A2975 RMK A01 T01071015  RH  043%=      5-min Rain = 0
KST4 200253Z 18008KT 11/M02 A2975 RMK A01 T01051017  RH  043%=      5-min Rain = 0
KST4 200254Z 18008KT 11/M02 A2975 RMK A01 T01051017  RH  043%=      5-min Rain = 0
KST4 200255Z 18009KT 10/M02 A2975 RMK A01 T01041017  RH  043%=      5-min Rain = 0
KST4 200256Z 18009KT 10/M02 A2975 RMK A01 T01031017  RH  043%=      5-min Rain = 0
KST4 200257Z 18008KT 10/M02 A2975 RMK A01 T01021017  RH  043%=      5-min Rain = 0
KST4 200258Z 18008KT 10/M02 A2975 RMK A01 T01011016  RH  044%=      5-min Rain = 0
KST4 200259Z 18009KT 10/M02 A2975 RMK A01 T01001016  RH  044%=      5-min Rain = 0
KST4 200300Z 18009KT 10/M02 A2975 RMK A01 T00991017  RH  044%=      5-min Rain = 0
KST4 200301Z 18009KT 10/M02 A2975 RMK A01 T00971017  RH  045%=      5-min Rain = 0
KST4 200302Z 18009KT 10/M02 A2975 RMK A01 T00961018  RH  045%=      5-min Rain = 0
KST4 200303Z 18009KT 10/M02 A2975 RMK A01 T00951017  RH  045%=      5-min Rain = 0
KST4 200304Z 18008KT 09/M02 A2975 RMK A01 T00941016  RH  046%=      5-min Rain = 0
KST4 200305Z 18008KT 09/M02 A2975 RMK A01 T00941016  RH  046%=      5-min Rain = 0
KST4 200306Z 18009KT 09/M02 A2975 RMK A01 T00931015  RH  047%=      5-min Rain = 0
KST4 200307Z 19009KT 09/M02 A2975 RMK A01 T00931015  RH  047%=      5-min Rain = 0
KST4 200308Z 18008KT 09/M02 A2975 RMK A01 T00921015  RH  047%=      5-min Rain = 0
KST4 200309Z 18008KT 09/M02 A2975 RMK A01 T00901016  RH  048%=      5-min Rain = 0
KST4 200310Z 18008KT 09/M02 A2975 RMK A01 T00881016  RH  048%=      5-min Rain = 0
KST4 200311Z 18008KT 09/M02 A2975 RMK A01 T00861016  RH  049%=      5-min Rain = 0
KST4 200312Z 18009KT 09/M02 A2975 RMK A01 T00851016  RH  049%=      5-min Rain = 0
KST4 200313Z 18009KT 09/M02 A2975 RMK A01 T00851017  RH  049%=      5-min Rain = 0
KST4 200314Z 18009KT 09/M02 A2975 RMK A01 T00861017  RH  048%=      5-min Rain = 0
KST4 200315Z 18009KT 09/M02 A2975 RMK A01 T00871016  RH  048%=      5-min Rain = 0
KST4 200316Z 18009KT 09/M02 A2975 RMK A01 T00881015  RH  048%=      5-min Rain = 0
KST4 200317Z 18009KT 09/M01 A2975 RMK A01 T00891014  RH  048%=      5-min Rain = 0
KST4 200318Z 17009KT 09/M01 A2975 RMK A01 T00901014  RH  048%=      5-min Rain = 0
KST4 200319Z 17009KT 09/M01 A2975 RMK A01 T00911014  RH  048%=      5-min Rain = 0
KST4 200320Z 17009KT 09/M01 A2975 RMK A01 T00921014  RH  047%=      5-min Rain = 0
KST4 200321Z 17010KT 09/M01 A2975 RMK A01 T00931014  RH  047%=      5-min Rain = 0
KST4 200322Z 17010KT 10/M01 A2975 RMK A01 T00951014  RH  046%=      5-min Rain = 0
KST4 200323Z 17009KT 10/M01 A2975 RMK A01 T00981014  RH  046%=      5-min Rain = 0
KST4 200324Z 17010KT 10/M02 A2975 RMK A01 T00991015  RH  045%=      5-min Rain = 0
KST4 200325Z 17009KT 10/M02 A2975 RMK A01 T01011017  RH  044%=      5-min Rain = 0
KST4 200326Z 17009KT 10/M02 A2974 RMK A01 T01021018  RH  043%=      5-min Rain = 0
KST4 200327Z 16009KT 10/M02 A2974 RMK A01 T01021019  RH  043%=      5-min Rain = 0
KST4 200328Z 16009KT 10/M02 A2974 RMK A01 T01011019  RH  043%=      5-min Rain = 0
KST4 200329Z 16009KT 10/M02 A2974 RMK A01 T01001020  RH  043%=      5-min Rain = 0
KST4 200330Z 16009KT 10/M02 A2974 RMK A01 T00971020  RH  044%=      5-min Rain = 0
KST4 200331Z 17009KT 10/M02 A2974 RMK A01 T00961021  RH  044%=      5-min Rain = 0
KST4 200332Z 17009KT 09/M02 A2974 RMK A01 T00941021  RH  044%=      5-min Rain = 0
KST4 200333Z 17009KT 09/M02 A2974 RMK A01 T00931021  RH  045%=      5-min Rain = 0
KST4 200334Z 17009KT 09/M02 A2974 RMK A01 T00931020  RH  045%=      5-min Rain = 0
KST4 200335Z 17009KT 09/M02 A2974 RMK A01 T00921019  RH  046%=      5-min Rain = 0
KST4 200336Z 17009KT 09/M02 A2974 RMK A01 T00901018  RH  047%=      5-min Rain = 0
KST4 200337Z 17009KT 09/M02 A2974 RMK A01 T00881017  RH  048%=      5-min Rain = 0
KST4 200338Z 17009KT 09/M02 A2974 RMK A01 T00871015  RH  049%=      5-min Rain = 0
KST4 200339Z 17008KT 09/M01 A2974 RMK A01 T00861014  RH  050%=      5-min Rain = 0
KST4 200340Z 17008KT 09/M01 A2974 RMK A01 T00851011  RH  051%=      5-min Rain = 0
KST4 200341Z 18008KT 08/M01 A2974 RMK A01 T00841010  RH  052%=      5-min Rain = 0
KST4 200342Z 18008KT 08/M01 A2974 RMK A01 T00821009  RH  053%=      5-min Rain = 0
KST4 200343Z 18008KT 08/M01 A2974 RMK A01 T00781009  RH  054%=      5-min Rain = 0
KST4 200344Z 18008KT 08/M01 A2974 RMK A01 T00751011  RH  055%=      5-min Rain = 0
KST4 200345Z 18009KT 07/M01 A2974 RMK A01 T00731011  RH  055%=      5-min Rain = 0
KST4 200346Z 18009KT 07/M01 A2974 RMK A01 T00721011  RH  056%=      5-min Rain = 0
KST4 200347Z 18009KT 07/M01 A2974 RMK A01 T00721010  RH  056%=      5-min Rain = 0
KST4 200348Z 18009KT 07/M01 A2974 RMK A01 T00721009  RH  056%=      5-min Rain = 0
KST4 200349Z 18010KT 07/M01 A2974 RMK A01 T00741009  RH  056%=      5-min Rain = 0
KST4 200350Z 18010KT 08/M01 A2974 RMK A01 T00751009  RH  055%=      5-min Rain = 0
KST4 200351Z 18010KT 08/M01 A2974 RMK A01 T00761009  RH  055%=      5-min Rain = 0
KST4 200352Z 18010KT 08/M01 A2974 RMK A01 T00761009  RH  055%=      5-min Rain = 0
KST4 200353Z 17010KT 08/M01 A2974 RMK A01 T00781009  RH  054%=      5-min Rain = 0
KST4 200354Z 17010KT 08/M01 A2974 RMK A01 T00791008  RH  054%=      5-min Rain = 0
KST4 200355Z 18010KT 08/M01 A2974 RMK A01 T00811008  RH  054%=      5-min Rain = 0
KST4 200356Z 17009KT 08/M01 A2974 RMK A01 T00821008  RH  053%=      5-min Rain = 0
KST4 200357Z 17010KT 08/M01 A2974 RMK A01 T00821008  RH  053%=      5-min Rain = 0
KST4 200358Z 17010KT 08/M01 A2974 RMK A01 T00831008  RH  053%=      5-min Rain = 0
KST4 200359Z 18010KT 08/M01 A2974 RMK A01 T00821008  RH  053%=      5-min Rain = 0
KST4 200400Z 17010KT 08/M01 A2974 RMK A01 T00831008  RH  053%=      5-min Rain = 0
KST4 200401Z 17010KT 08/M01 A2974 RMK A01 T00831009  RH  052%=      5-min Rain = 0
KST4 200402Z 17010KT 08/M01 A2974 RMK A01 T00831009  RH  052%=      5-min Rain = 0
KST4 200403Z 17010KT 08/M01 A2974 RMK A01 T00841009  RH  052%=      5-min Rain = 0
KST4 200404Z 18010KT 08/M01 A2974 RMK A01 T00841009  RH  052%=      5-min Rain = 0
KST4 200405Z 17010KT 08/M01 A2974 RMK A01 T00841009  RH  052%=      5-min Rain = 0
KST4 200406Z 17010KT 08/M01 A2974 RMK A01 T00841008  RH  052%=      5-min Rain = 0
KST4 200407Z 17010KT 08/M01 A2974 RMK A01 T00841008  RH  052%=      5-min Rain = 0
KST4 200408Z 18009KT 08/M01 A2974 RMK A01 T00841007  RH  053%=      5-min Rain = 0
KST4 200409Z 18009KT 08/M01 A2974 RMK A01 T00841007  RH  053%=      5-min Rain = 0
KST4 200410Z 18009KT 08/M01 A2974 RMK A01 T00841007  RH  053%=      5-min Rain = 0
KST4 200411Z 18009KT 08/M01 A2974 RMK A01 T00831007  RH  053%=      5-min Rain = 0
KST4 200412Z 17010KT 08/M01 A2974 RMK A01 T00821007  RH  053%=      5-min Rain = 0
KST4 200413Z 17010KT 08/M01 A2974 RMK A01 T00811008  RH  054%=      5-min Rain = 0
KST4 200414Z 17010KT 08/M01 A2974 RMK A01 T00811007  RH  054%=      5-min Rain = 0
KST4 200415Z 17010KT 08/M01 A2974 RMK A01 T00811007  RH  054%=      5-min Rain = 0
KST4 200416Z 17010KT 08/M01 A2974 RMK A01 T00811007  RH  054%=      5-min Rain = 0
KST4 200417Z 17010KT 08/M01 A2974 RMK A01 T00811007  RH  054%=      5-min Rain = 0
KST4 200418Z 17009KT 08/M01 A2974 RMK A01 T00801007  RH  054%=      5-min Rain = 0
KST4 200419Z 17009KT 08/M01 A2974 RMK A01 T00791008  RH  054%=      5-min Rain = 0
KST4 200420Z 17009KT 08/M01 A2974 RMK A01 T00791008  RH  054%=      5-min Rain = 0
KST4 200421Z 17010KT 08/M01 A2974 RMK A01 T00791008  RH  054%=      5-min Rain = 0
KST4 200422Z 17009KT 08/M01 A2974 RMK A01 T00791008  RH  054%=      5-min Rain = 0
KST4 200423Z 17010KT 08/M01 A2974 RMK A01 T00791009  RH  054%=      5-min Rain = 0
KST4 200424Z 17009KT 08/M01 A2974 RMK A01 T00791009  RH  054%=      5-min Rain = 0
KST4 200425Z 17009KT 08/M01 A2974 RMK A01 T00801009  RH  053%=      5-min Rain = 0
KST4 200426Z 17009KT 08/M01 A2974 RMK A01 T00801009  RH  053%=      5-min Rain = 0
KST4 200427Z 17009KT 08/M01 A2974 RMK A01 T00801009  RH  053%=      5-min Rain = 0
KST4 200428Z 17009KT 08/M01 A2973 RMK A01 T00811008  RH  054%=      5-min Rain = 0
KST4 200429Z 18009KT 08/M01 A2973 RMK A01 T00801007  RH  054%=      5-min Rain = 0
KST4 200430Z 18009KT 08/M01 A2973 RMK A01 T00781006  RH  055%=      5-min Rain = 0
KST4 200431Z 17010KT 08/M01 A2973 RMK A01 T00781006  RH  055%=      5-min Rain = 0
KST4 200432Z 17009KT 08/M01 A2973 RMK A01 T00771007  RH  055%=      5-min Rain = 0
KST4 200433Z 17010KT 08/M01 A2973 RMK A01 T00781007  RH  055%=      5-min Rain = 0
KST4 200434Z 17010KT 08/M01 A2973 RMK A01 T00781007  RH  055%=      5-min Rain = 0
KST4 200435Z 18010KT 08/M01 A2973 RMK A01 T00771008  RH  055%=      5-min Rain = 0
KST4 200436Z 18010KT 08/M01 A2973 RMK A01 T00771007  RH  055%=      5-min Rain = 0
KST4 200437Z 17010KT 08/M01 A2973 RMK A01 T00761007  RH  056%=      5-min Rain = 0
KST4 200438Z 18010KT 08/M01 A2973 RMK A01 T00751007  RH  056%=      5-min Rain = 0
KST4 200439Z 18010KT 07/M01 A2973 RMK A01 T00741007  RH  057%=      5-min Rain = 0
KST4 200440Z 17010KT 07/M01 A2973 RMK A01 T00741007  RH  057%=      5-min Rain = 0
KST4 200441Z 17010KT 07/M01 A2973 RMK A01 T00731007  RH  057%=      5-min Rain = 0
KST4 200442Z 18010KT 07/M01 A2973 RMK A01 T00731007  RH  056%=      5-min Rain = 0
KST4 200443Z 18009KT 07/M01 A2973 RMK A01 T00731007  RH  057%=      5-min Rain = 0
KST4 200444Z 18009KT 07/M01 A2973 RMK A01 T00721007  RH  057%=      5-min Rain = 0
KST4 200445Z 19010KT 07/M01 A2973 RMK A01 T00701008  RH  058%=      5-min Rain = 0
KST4 200446Z 19010KT 07/M01 A2973 RMK A01 T00701007  RH  058%=      5-min Rain = 0
KST4 200447Z 18010KT 07/M01 A2973 RMK A01 T00681007  RH  059%=      5-min Rain = 0
KST4 200448Z 18011KT 07/M01 A2973 RMK A01 T00681007  RH  059%=      5-min Rain = 0
KST4 200449Z 18010KT 07/M01 A2973 RMK A01 T00681008  RH  058%=      5-min Rain = 0
KST4 200450Z 18010KT 07/M01 A2973 RMK A01 T00691008  RH  058%=      5-min Rain = 0
KST4 200451Z 18010KT 07/M01 A2973 RMK A01 T00691009  RH  058%=      5-min Rain = 0
KST4 200452Z 18010KT 07/M01 A2973 RMK A01 T00691009  RH  058%=      5-min Rain = 0
KST4 200453Z 18010KT 07/M01 A2973 RMK A01 T00681009  RH  058%=      5-min Rain = 0
KST4 200454Z 18010KT 07/M01 A2973 RMK A01 T00671009  RH  058%=      5-min Rain = 0
KST4 200455Z 19010KT 07/M01 A2973 RMK A01 T00671008  RH  059%=      5-min Rain = 0
KST4 200456Z 18009KT 07/M01 A2973 RMK A01 T00671008  RH  059%=      5-min Rain = 0
KST4 200457Z 18010KT 07/M01 A2973 RMK A01 T00671008  RH  059%=      5-min Rain = 0
KST4 200458Z 18009KT 07/M01 A2973 RMK A01 T00661009  RH  059%=      5-min Rain = 0
KST4 200459Z 18009KT 07/M01 A2973 RMK A01 T00671009  RH  058%=      5-min Rain = 0
KST4 200500Z 18010KT 07/M01 A2973 RMK A01 T00661009  RH  058%=      5-min Rain = 0
KST4 200501Z 18010KT 07/M01 A2973 RMK A01 T00661010  RH  059%=      5-min Rain = 0
KST4 200502Z 18010KT 07/M01 A2973 RMK A01 T00651010  RH  059%=      5-min Rain = 0
KST4 200503Z 18010KT 07/M01 A2973 RMK A01 T00651010  RH  059%=      5-min Rain = 0
KST4 200504Z 18010KT 07/M01 A2973 RMK A01 T00651010  RH  059%=      5-min Rain = 0
KST4 200505Z 19010KT 07/M01 A2973 RMK A01 T00651010  RH  059%=      5-min Rain = 0
KST4 200506Z 19010KT 07/M01 A2973 RMK A01 T00651010  RH  059%=      5-min Rain = 0
KST4 200507Z 19010KT 07/M01 A2973 RMK A01 T00651009  RH  059%=      5-min Rain = 0
KST4 200508Z 19010KT 07/M01 A2973 RMK A01 T00651009  RH  059%=      5-min Rain = 0
KST4 200509Z 19010KT 07/M01 A2973 RMK A01 T00651009  RH  059%=      5-min Rain = 0
KST4 200510Z 18010KT 07/M01 A2973 RMK A01 T00651010  RH  059%=      5-min Rain = 0
KST4 200511Z 18010KT 07/M01 A2973 RMK A01 T00651009  RH  059%=      5-min Rain = 0
KST4 200512Z 18010KT 07/M01 A2973 RMK A01 T00651010  RH  059%=      5-min Rain = 0
KST4 200513Z 18010KT 06/M01 A2973 RMK A01 T00641010  RH  059%=      5-min Rain = 0
KST4 200514Z 18010KT 06/M01 A2973 RMK A01 T00641010  RH  059%=      5-min Rain = 0
KST4 200515Z 18010KT 06/M01 A2973 RMK A01 T00631010  RH  059%=      5-min Rain = 0
KST4 200516Z 18010KT 06/M01 A2972 RMK A01 T00621010  RH  060%=      5-min Rain = 0
KST4 200517Z 18010KT 06/M01 A2972 RMK A01 T00621010  RH  060%=      5-min Rain = 0
KST4 200518Z 19010KT 06/M01 A2972 RMK A01 T00611010  RH  060%=      5-min Rain = 0
KST4 200519Z 19010KT 06/M01 A2972 RMK A01 T00601010  RH  061%=      5-min Rain = 0
KST4 200520Z 19009KT 06/M01 A2972 RMK A01 T00591010  RH  061%=      5-min Rain = 0
KST4 200521Z 19010KT 06/M01 A2972 RMK A01 T00591010  RH  061%=      5-min Rain = 0
KST4 200522Z 19010KT 06/M01 A2972 RMK A01 T00571011  RH  062%=      5-min Rain = 0
KST4 200523Z 19010KT 06/M01 A2972 RMK A01 T00561011  RH  062%=      5-min Rain = 0
KST4 200524Z 19010KT 06/M01 A2972 RMK A01 T00561010  RH  062%=      5-min Rain = 0
KST4 200525Z 19010KT 06/M01 A2972 RMK A01 T00561010  RH  062%=      5-min Rain = 0
KST4 200526Z 19010KT 06/M01 A2972 RMK A01 T00561010  RH  063%=      5-min Rain = 0
KST4 200527Z 19010KT 06/M01 A2972 RMK A01 T00571009  RH  062%=      5-min Rain = 0
KST4 200528Z 19010KT 06/M01 A2972 RMK A01 T00581009  RH  062%=      5-min Rain = 0
KST4 200529Z 19010KT 06/M01 A2972 RMK A01 T00591009  RH  062%=      5-min Rain = 0
KST4 200530Z 19010KT 06/M01 A2972 RMK A01 T00601009  RH  061%=      5-min Rain = 0
KST4 200531Z 19010KT 06/M01 A2972 RMK A01 T00601009  RH  061%=      5-min Rain = 0
KST4 200532Z 19010KT 06/M01 A2972 RMK A01 T00601009  RH  061%=      5-min Rain = 0
KST4 200533Z 19010KT 06/M01 A2972 RMK A01 T00601009  RH  061%=      5-min Rain = 0
KST4 200534Z 19010KT 06/M01 A2972 RMK A01 T00591009  RH  061%=      5-min Rain = 0
KST4 200535Z 19009KT 06/M01 A2972 RMK A01 T00581010  RH  062%=      5-min Rain = 0
KST4 200536Z 19009KT 06/M01 A2972 RMK A01 T00581010  RH  062%=      5-min Rain = 0
KST4 200537Z 19009KT 06/M01 A2972 RMK A01 T00571010  RH  062%=      5-min Rain = 0
KST4 200538Z 19009KT 06/M01 A2972 RMK A01 T00561010  RH  062%=      5-min Rain = 0
KST4 200539Z 19009KT 06/M01 A2972 RMK A01 T00551010  RH  063%=      5-min Rain = 0
KST4 200540Z 20009KT 05/M01 A2972 RMK A01 T00541010  RH  063%=      5-min Rain = 0
KST4 200541Z 20009KT 05/M01 A2972 RMK A01 T00541010  RH  063%=      5-min Rain = 0
KST4 200542Z 20009KT 05/M01 A2972 RMK A01 T00541010  RH  063%=      5-min Rain = 0
KST4 200543Z 20009KT 05/M01 A2972 RMK A01 T00541010  RH  063%=      5-min Rain = 0
KST4 200544Z 20009KT 05/M01 A2972 RMK A01 T00541010  RH  064%=      5-min Rain = 0
KST4 200545Z 20009KT 05/M01 A2972 RMK A01 T00541010  RH  063%=      5-min Rain = 0
KST4 200546Z 21009KT 05/M01 A2972 RMK A01 T00541010  RH  064%=      5-min Rain = 0
KST4 200547Z 21008KT 05/M01 A2972 RMK A01 T00531010  RH  064%=      5-min Rain = 0
KST4 200548Z 21009KT 05/M01 A2972 RMK A01 T00521011  RH  064%=      5-min Rain = 0
KST4 200549Z 21009KT 05/M01 A2972 RMK A01 T00521011  RH  064%=      5-min Rain = 0
KST4 200550Z 21009KT 05/M01 A2972 RMK A01 T00521011  RH  064%=      5-min Rain = 0
KST4 200551Z 21009KT 05/M01 A2972 RMK A01 T00521011  RH  064%=      5-min Rain = 0
KST4 200552Z 21009KT 05/M01 A2972 RMK A01 T00521011  RH  064%=      5-min Rain = 0
KST4 200553Z 21009KT 05/M01 A2972 RMK A01 T00531012  RH  063%=      5-min Rain = 0
KST4 200554Z 20009KT 06/M01 A2972 RMK A01 T00551011  RH  063%=      5-min Rain = 0
KST4 200555Z 21009KT 06/M01 A2972 RMK A01 T00551011  RH  062%=      5-min Rain = 0
KST4 200556Z 20009KT 06/M01 A2972 RMK A01 T00551011  RH  062%=      5-min Rain = 0
KST4 200557Z 20009KT 06/M01 A2972 RMK A01 T00561010  RH  063%=      5-min Rain = 0
KST4 200558Z 20009KT 06/M01 A2972 RMK A01 T00561010  RH  062%=      5-min Rain = 0
KST4 200559Z 20009KT 06/M01 A2972 RMK A01 T00561010  RH  062%=      5-min Rain = 0

Page generated in 0.0763 seconds.